M I D A S
Marine Information and Data Acquisition System
Tripno 2319 of the Zeeleeuw from 2012-05-29 07:03:19 to 2012-05-29 15:46:05
Back to CruiseResearch ActivitiesStationsMapUnderway DataData graphs

EquipmentUnitsComment
TimeDGPSUTC
LatitudeDGPSDM.mWGS84
LongitudeDGPSDM.mWGS84
TemperatureSBE03/SBE38deg celciusITS90
ConductivitySBE21S/mITS90
SalinitySBE21 Practical Salinity Units
ChlorophylAChelsea fluorimeterg/lCalibrated in Aceton
Missing or incorrect values are displayed as -999
Sea surface data collected by the RV Zeeleeuw from 2012-05-29 02:21:52 to 2012-05-29 15:51:47
                                                                                    Next 1000 lines
Time Latitude Longitude Temperature Conductivity Salinity ChlorophylA
2012-05-29 02:22:01 51°13.637 2°56.015 22.1193 0.084552 0.342827 -2.458615
2012-05-29 02:22:07 51°13.637 2°56.014 22.1194 0.084552 0.342831 -2.458615
2012-05-29 02:22:11 51°13.637 2°56.014 22.1193 0.084552 0.342835 -2.458615
2012-05-29 02:22:17 51°13.637 2°56.015 22.12 0.084655 0.343267 -2.458615
2012-05-29 02:22:21 51°13.637 2°56.015 22.1198 0.084552 0.342835 -2.458615
2012-05-29 02:22:27 51°13.637 2°56.015 22.1199 0.084552 0.342843 -2.458615
2012-05-29 02:22:31 51°13.638 2°56.015 22.1199 0.084552 0.342843 -2.458615
2012-05-29 02:22:37 51°13.638 2°56.015 22.1203 0.084552 0.342851 -2.458615
2012-05-29 02:22:41 51°13.638 2°56.015 22.1212 0.084552 0.342851 -2.458615
2012-05-29 02:22:46 51°13.638 2°56.015 22.1202 0.084655 0.343278 -2.458615
2012-05-29 02:22:51 51°13.638 2°56.015 22.1216 0.084552 0.342855 -2.458615
2012-05-29 02:22:56 51°13.638 2°56.015 22.121 0.084449 0.342432 -2.458615
2012-05-29 02:23:02 51°13.638 2°56.015 22.1211 0.084449 0.342432 -2.458615
2012-05-29 02:23:06 51°13.638 2°56.015 22.1198 0.084552 0.342863 -2.458615
2012-05-29 02:23:11 51°13.638 2°56.014 22.1201 0.084552 0.342867 -2.458615
2012-05-29 02:23:16 51°13.638 2°56.013 22.1205 0.084552 0.342871 -2.458615
2012-05-29 02:23:22 51°13.638 2°56.013 22.1199 0.084552 0.342871 -2.458615
2012-05-29 02:23:26 51°13.638 2°56.012 22.1204 0.084552 0.342879 -2.458615
2012-05-29 02:23:32 51°13.638 2°56.012 22.1201 0.084552 0.342879 -2.458615
2012-05-29 02:23:36 51°13.639 2°56.012 22.1208 0.084552 0.342879 -2.458615
2012-05-29 02:23:41 51°13.639 2°56.011 22.1207 0.084552 0.342887 -2.458615
2012-05-29 02:23:46 51°13.639 2°56.011 22.1209 0.084552 0.342887 -2.458615
2012-05-29 02:23:52 51°13.639 2°56.01 22.1206 0.084449 0.342463 -2.458615
2012-05-29 02:23:57 51°13.639 2°56.01 22.1214 0.084552 0.342895 -2.458615
2012-05-29 02:24:01 51°13.639 2°56.01 22.1213 0.084552 0.342895 -2.458615
2012-05-29 02:24:07 51°13.639 2°56.01 22.1214 0.084449 0.342467 -2.458615
2012-05-29 02:24:11 51°13.639 2°56.01 22.1213 0.084552 0.342902 -2.458615
2012-05-29 02:24:17 51°13.639 2°56.01 22.1216 0.084552 0.342906 -2.458615
2012-05-29 02:24:21 51°13.639 2°56.009 22.1215 0.084449 0.342479 -2.458615
2012-05-29 02:24:27 51°13.639 2°56.009 22.1216 0.084552 0.34291 -2.458615
2012-05-29 02:24:31 51°13.639 2°56.009 22.122 0.084552 0.34291 -2.458615
2012-05-29 02:24:37 51°13.639 2°56.009 22.1228 0.084655 0.343342 -2.458615
2012-05-29 02:24:41 51°13.639 2°56.008 22.1228 0.084552 0.342914 -2.458615
2012-05-29 02:24:47 51°13.639 2°56.008 22.1229 0.084552 0.342922 -2.458615
2012-05-29 02:24:51 51°13.639 2°56.008 22.1223 0.084552 0.342922 -2.458615
2012-05-29 02:24:56 51°13.639 2°56.008 22.1221 0.084552 0.342926 -2.458615
2012-05-29 02:25:02 51°13.639 2°56.008 22.1217 0.084552 0.342926 -2.458615
2012-05-29 02:25:06 51°13.639 2°56.008 22.1215 0.084552 0.34293 -2.458615
2012-05-29 02:25:11 51°13.639 2°56.008 22.1212 0.084552 0.342934 -2.458615
2012-05-29 02:25:16 51°13.639 2°56.009 22.1216 0.084552 0.342938 -2.458615
2012-05-29 02:25:22 51°13.639 2°56.009 22.1209 0.084552 0.342938 -2.458615
2012-05-29 02:25:26 51°13.639 2°56.009 22.1212 0.084552 0.342942 -2.458615
2012-05-29 02:25:31 51°13.639 2°56.01 22.1218 0.084552 0.342942 -2.458615
2012-05-29 02:25:36 51°13.639 2°56.01 22.1218 0.084552 0.342946 -2.458615
2012-05-29 02:25:42 51°13.639 2°56.01 22.1219 0.084655 0.343377 -2.458615
2012-05-29 02:25:46 51°13.639 2°56.01 22.122 0.084655 0.343385 -2.458615
2012-05-29 02:25:52 51°13.639 2°56.01 22.122 0.084552 0.342954 -2.458615
2012-05-29 02:25:57 51°13.639 2°56.01 22.1219 0.084552 0.342958 -2.458615
2012-05-29 02:26:01 51°13.639 2°56.01 22.122 0.084552 0.342958 -2.458615
2012-05-29 02:26:07 51°13.639 2°56.01 22.1225 0.084449 0.342534 -2.458615
2012-05-29 02:26:11 51°13.639 2°56.01 22.123 0.084552 0.342966 -2.458615
2012-05-29 02:26:16 51°13.639 2°56.01 22.1225 0.084552 0.34297 -2.458615
2012-05-29 02:26:21 51°13.639 2°56.01 22.1224 0.084552 0.34297 -2.458615
2012-05-29 02:26:27 51°13.639 2°56.01 22.123 0.084552 0.342978 -2.458615
2012-05-29 02:26:31 51°13.639 2°56.01 22.1234 0.084552 0.342978 -2.458615
2012-05-29 02:26:37 51°13.639 2°56.01 22.123 0.084449 0.342554 -2.458615
2012-05-29 02:26:41 51°13.639 2°56.01 22.1228 0.084552 0.342982 -2.458615
2012-05-29 02:26:46 51°13.639 2°56.01 22.1237 0.084552 0.342985 -2.458615
2012-05-29 02:26:51 51°13.639 2°56.01 22.123 0.084552 0.342989 -2.458615
2012-05-29 02:26:56 51°13.639 2°56.01 22.1233 0.084552 0.342993 -2.458615
2012-05-29 02:27:02 51°13.639 2°56.01 22.1231 0.084552 0.342993 -2.458615
2012-05-29 02:27:06 51°13.639 2°56.01 22.1232 0.084552 0.342997 -2.458615
2012-05-29 02:27:11 51°13.639 2°56.01 22.123 0.084655 0.343425 -2.458615
2012-05-29 02:27:16 51°13.639 2°56.01 22.1233 0.084655 0.343433 -2.458615
2012-05-29 02:27:22 51°13.639 2°56.009 22.1232 0.084552 0.343005 -2.458615
2012-05-29 02:27:26 51°13.639 2°56.009 22.1234 0.084552 0.343009 -2.458615
2012-05-29 02:27:32 51°13.639 2°56.009 22.1234 0.084552 0.343009 -2.458615
2012-05-29 02:27:36 51°13.639 2°56.008 22.1233 0.084552 0.343009 -2.458615
2012-05-29 02:27:42 51°13.639 2°56.008 22.1237 0.084449 0.342586 -2.458615
2012-05-29 02:27:46 51°13.639 2°56.008 22.123 0.084552 0.343021 -2.458615
2012-05-29 02:27:52 51°13.64 2°56.008 22.1233 0.084449 0.342594 -2.458615
2012-05-29 02:27:57 51°13.64 2°56.008 22.1233 0.084449 0.342598 -2.458615
2012-05-29 02:28:01 51°13.64 2°56.008 22.1237 0.084449 0.342598 -2.458615
2012-05-29 02:28:07 51°13.64 2°56.008 22.1231 0.084552 0.343029 -2.458615
2012-05-29 02:28:11 51°13.64 2°56.009 22.1226 0.084552 0.343029 -2.458615
2012-05-29 02:28:16 51°13.639 2°56.009 22.1226 0.084552 0.343033 -2.458615
2012-05-29 02:28:21 51°13.64 2°56.009 22.1225 0.084449 0.342609 -2.458615
2012-05-29 02:28:26 51°13.64 2°56.01 22.1228 0.084552 0.343041 -2.458615
2012-05-29 02:28:31 51°13.64 2°56.01 22.1226 0.084552 0.343041 -2.458615
2012-05-29 02:28:37 51°13.64 2°56.01 22.1221 0.084552 0.343045 -2.458615
2012-05-29 02:28:41 51°13.64 2°56.01 22.1219 0.084449 0.342617 -2.458615
2012-05-29 02:28:46 51°13.64 2°56.01 22.1218 0.084449 0.342621 -2.458615
2012-05-29 02:28:51 51°13.64 2°56.01 22.1215 0.084449 0.342625 -2.458615
2012-05-29 02:28:56 51°13.64 2°56.01 22.1217 0.084552 0.343057 -2.458615
2012-05-29 02:29:01 51°13.639 2°56.01 22.1214 0.084552 0.343057 -2.458615
2012-05-29 02:29:06 51°13.64 2°56.009 22.1218 0.084552 0.343057 -2.458615
2012-05-29 02:29:11 51°13.64 2°56.009 22.1216 0.084552 0.343065 -2.458615
2012-05-29 02:29:16 51°13.64 2°56.009 22.1218 0.084552 0.343065 -2.458615
2012-05-29 02:29:22 51°13.639 2°56.009 22.1218 0.084552 0.343072 -2.458615
2012-05-29 02:29:26 51°13.639 2°56.008 22.122 0.084449 0.342645 -2.458615
2012-05-29 02:29:32 51°13.639 2°56.008 22.1213 0.084449 0.342645 -2.458615
2012-05-29 02:29:36 51°13.639 2°56.008 22.119 0.084552 0.343072 -2.458615
2012-05-29 02:29:41 51°13.639 2°56.008 22.1176 0.084552 0.343076 -2.458615
2012-05-29 02:29:46 51°13.639 2°56.007 22.1168 0.084552 0.34308 -2.458615
2012-05-29 02:29:52 51°13.639 2°56.008 22.1161 0.084552 0.343088 -2.458615
2012-05-29 02:29:57 51°13.639 2°56.008 22.1162 0.084449 0.342657 -2.458615
2012-05-29 02:30:01 51°13.639 2°56.008 22.1165 0.084449 0.342657 -2.458615
2012-05-29 02:30:07 51°13.638 2°56.007 22.1161 0.084449 0.342665 -2.458615
2012-05-29 02:30:12 51°13.636 2°56.002 22.1167 0.084449 0.342669 -2.458615
2012-05-29 02:30:16 51°13.635 2°55.997 22.1162 0.084552 0.343096 -2.458615
2012-05-29 02:30:21 51°13.634 2°55.992 22.1166 0.084552 0.3431 -2.458615
2012-05-29 02:30:27 51°13.634 2°55.991 22.1164 0.084449 0.342677 -2.458615
2012-05-29 02:30:32 51°13.634 2°55.99 22.1167 0.084449 0.342677 -2.458615
2012-05-29 02:30:36 51°13.634 2°55.99 22.1178 0.084449 0.34268 -2.458615
2012-05-29 02:30:41 51°13.634 2°55.991 22.1173 0.084449 0.34268 -2.458615
2012-05-29 02:30:47 51°13.633 2°55.99 22.1174 0.084449 0.342684 -2.458615
2012-05-29 02:30:51 51°13.633 2°55.989 22.1169 0.084449 0.342688 -2.458615
2012-05-29 02:30:57 51°13.633 2°55.987 22.117 0.084552 0.34312 -2.458615
2012-05-29 02:31:01 51°13.633 2°55.987 22.1172 0.084552 0.34312 -2.458615
2012-05-29 02:31:07 51°13.634 2°55.988 22.1171 0.084552 0.34312 -2.458615
2012-05-29 02:31:11 51°13.635 2°55.989 22.1171 0.084449 0.342696 -2.458615
2012-05-29 02:31:16 51°13.635 2°55.991 22.117 0.084449 0.342704 -2.458615
2012-05-29 02:31:21 51°13.635 2°55.993 22.117 0.084449 0.342704 -2.458615
2012-05-29 02:31:27 51°13.636 2°55.994 22.1173 0.084552 0.343132 -2.458615
2012-05-29 02:31:31 51°13.636 2°55.995 22.117 0.084552 0.343132 -2.458615
2012-05-29 02:31:37 51°13.636 2°55.996 22.1178 0.084552 0.34314 -2.458615
2012-05-29 02:31:41 51°13.636 2°55.996 22.1169 0.084552 0.343144 -2.458615
2012-05-29 02:31:47 51°13.636 2°55.997 22.1173 0.084449 0.342716 -2.458615
2012-05-29 02:31:51 51°13.636 2°55.997 22.1176 0.084449 0.34272 -2.458615
2012-05-29 02:31:57 51°13.636 2°55.998 22.1174 0.084552 0.343152 -2.458615
2012-05-29 02:32:01 51°13.636 2°55.998 22.1175 0.084552 0.343152 -2.458615
2012-05-29 02:32:06 51°13.636 2°55.999 22.1173 0.084552 0.343156 -2.458615
2012-05-29 02:32:11 51°13.636 2°55.999 22.1176 0.084552 0.343156 -2.458615
2012-05-29 02:32:17 51°13.636 2°55.999 22.1176 0.084552 0.34316 -2.458615
2012-05-29 02:32:21 51°13.636 2°56 22.1177 0.084552 0.343163 -2.458615
2012-05-29 02:32:26 51°13.637 2°56 22.1179 0.084449 0.34274 -2.458615
2012-05-29 02:32:31 51°13.637 2°56 22.1185 0.084449 0.34274 -2.458615
2012-05-29 02:32:36 51°13.637 2°56 22.1186 0.084449 0.342744 -2.458615
2012-05-29 02:32:42 51°13.637 2°56 22.1178 0.084552 0.343171 -2.458615
2012-05-29 02:32:46 51°13.637 2°56 22.1179 0.084449 0.342752 -2.458615
2012-05-29 02:32:51 51°13.637 2°56 22.1176 0.084449 0.342748 -2.458615
2012-05-29 02:32:56 51°13.637 2°56 22.1176 0.084449 0.342756 -2.458615
2012-05-29 02:33:02 51°13.637 2°56 22.1175 0.084449 0.342756 -2.458615
2012-05-29 02:33:06 51°13.637 2°56 22.1172 0.084552 0.343183 -2.458615
2012-05-29 02:33:12 51°13.637 2°56 22.1171 0.084449 0.342764 -2.458615
2012-05-29 02:33:16 51°13.637 2°56 22.1168 0.084552 0.343187 -2.458615
2012-05-29 02:33:21 51°13.638 2°56 22.117 0.084449 0.342764 -2.458615
2012-05-29 02:33:27 51°13.638 2°56 22.1175 0.084655 0.343623 -2.458615
2012-05-29 02:33:32 51°13.638 2°56 22.1172 0.084655 0.343623 -2.458615
2012-05-29 02:33:36 51°13.638 2°56 22.117 0.084449 0.342775 -2.458615
2012-05-29 02:33:41 51°13.638 2°56 22.117 0.084449 0.342775 -2.458615
2012-05-29 02:33:47 51°13.638 2°56 22.117 0.084449 0.342783 -2.458615
2012-05-29 02:33:51 51°13.638 2°56 22.1167 0.084449 0.342783 -2.458615
2012-05-29 02:33:56 51°13.638 2°56 22.1164 0.084552 0.343215 -2.458615
2012-05-29 02:34:01 51°13.638 2°56 22.1161 0.084552 0.343215 -2.458615
2012-05-29 02:34:06 51°13.638 2°56.001 22.1161 0.084449 0.342787 -2.458615
2012-05-29 02:34:11 51°13.638 2°56 22.1165 0.084552 0.343219 -2.458615
2012-05-29 02:34:16 51°13.638 2°56.001 22.1158 0.084449 0.342795 -2.458615
2012-05-29 02:34:22 51°13.638 2°56.001 22.1165 0.084449 0.342799 -2.458615
2012-05-29 02:34:26 51°13.638 2°56.001 22.1159 0.084552 0.343231 -2.458615
2012-05-29 02:34:31 51°13.638 2°56 22.1166 0.084552 0.343231 -2.458615
2012-05-29 02:34:36 51°13.639 2°55.999 22.1158 0.084449 0.342803 -2.458615
2012-05-29 02:34:42 51°13.639 2°55.999 22.116 0.084552 0.343235 -2.458615
2012-05-29 02:34:46 51°13.639 2°55.999 22.1163 0.084449 0.342811 -2.458615
2012-05-29 02:34:52 51°13.639 2°55.999 22.116 0.084449 0.342815 -2.458615
2012-05-29 02:34:56 51°13.639 2°55.999 22.1163 0.084552 0.343247 -2.458615
2012-05-29 02:35:02 51°13.639 2°56 22.1158 0.084552 0.343247 -2.458615
2012-05-29 02:35:06 51°13.639 2°56 22.1161 0.084449 0.342823 -2.458615
2012-05-29 02:35:12 51°13.639 2°56 22.116 0.084449 0.342823 -2.458615
2012-05-29 02:35:16 51°13.639 2°56 22.1152 0.084449 0.342827 -2.458615
2012-05-29 02:35:21 51°13.639 2°56 22.1159 0.084449 0.342827 -2.458615
2012-05-29 02:35:27 51°13.639 2°56 22.1155 0.084449 0.342835 -2.458615
2012-05-29 02:35:32 51°13.639 2°56 22.115 0.084449 0.342835 -2.458615
2012-05-29 02:35:36 51°13.637 2°56.015 22.1142 0.084552 0.343266 -2.458615
2012-05-29 02:35:41 51°13.637 2°56.016 22.1141 0.084449 0.342839 -2.458615
2012-05-29 02:35:47 51°13.637 2°56.016 22.1142 0.084449 0.342843 -2.458615
2012-05-29 02:35:51 51°13.637 2°56.016 22.1143 0.084449 0.342847 -2.458615
2012-05-29 02:35:57 51°13.637 2°56.016 22.1143 0.084449 0.342847 -2.458615
2012-05-29 02:36:01 51°13.637 2°56.016 22.1142 0.084449 0.342847 -2.458615
2012-05-29 02:36:06 51°13.638 2°56.017 22.1142 0.084449 0.342851 -2.458615
2012-05-29 02:36:11 51°13.638 2°56.017 22.1142 0.084552 0.343282 -2.458615
2012-05-29 02:36:16 51°13.638 2°56.017 22.1145 0.084449 0.342858 -2.458615
2012-05-29 02:36:21 51°13.638 2°56.017 22.1142 0.084449 0.342866 -2.458615
2012-05-29 02:36:26 51°13.638 2°56.017 22.1134 0.084449 0.342866 -2.458615
2012-05-29 02:36:31 51°13.638 2°56.017 22.1104 0.084449 0.342866 -2.458615
2012-05-29 02:36:36 51°13.638 2°56.016 22.109 0.084449 0.342866 -2.458615
2012-05-29 02:36:41 51°13.638 2°56.016 22.108 0.084449 0.34287 -2.458615
2012-05-29 02:36:46 51°13.638 2°56.016 22.1087 0.084449 0.342874 -2.458615
2012-05-29 02:36:52 51°13.638 2°56.016 22.1089 0.084449 0.342874 -2.458615
2012-05-29 02:36:56 51°13.638 2°56.016 22.1081 0.084449 0.342882 -2.458615
2012-05-29 02:37:02 51°13.638 2°56.016 22.1076 0.084449 0.342882 -2.458615
2012-05-29 02:37:06 51°13.638 2°56.016 22.108 0.084449 0.342882 -2.458615
2012-05-29 02:37:12 51°13.638 2°56.016 22.1085 0.084449 0.342886 -2.458615
2012-05-29 02:37:17 51°13.638 2°56.016 22.1082 0.084552 0.343318 -2.458615
2012-05-29 02:37:21 51°13.638 2°56.016 22.1089 0.084347 0.342462 -2.458615
2012-05-29 02:37:26 51°13.638 2°56.016 22.1092 0.084449 0.342894 -2.458615
2012-05-29 02:37:32 51°13.638 2°56.017 22.1092 0.084449 0.342894 -2.458615
2012-05-29 02:37:36 51°13.638 2°56.017 22.1092 0.084449 0.342898 -2.458615
2012-05-29 02:37:41 51°13.638 2°56.017 22.1098 0.084347 0.342474 -2.458615
2012-05-29 02:37:47 51°13.639 2°56.017 22.11 0.084347 0.342478 -2.458615
2012-05-29 02:37:52 51°13.639 2°56.017 22.1109 0.084449 0.342906 -2.458615
2012-05-29 02:37:57 51°13.639 2°56.016 22.1108 0.084449 0.342914 -2.458615
2012-05-29 02:38:02 51°13.639 2°56.016 22.1109 0.084449 0.342914 -2.458615
2012-05-29 02:38:06 51°13.639 2°56.016 22.1101 0.084449 0.342914 -2.458615
2012-05-29 02:38:11 51°13.639 2°56.016 22.1097 0.084449 0.342914 -2.458615
2012-05-29 02:38:16 51°13.639 2°56.016 22.109 0.084449 0.342922 -2.458615
2012-05-29 02:38:21 51°13.639 2°56.016 22.1083 0.084347 0.342498 -2.458615
2012-05-29 02:38:26 51°13.638 2°56.017 22.1089 0.084449 0.342926 -2.458615
2012-05-29 02:38:31 51°13.638 2°56.017 22.1091 0.084449 0.342926 -2.458615
2012-05-29 02:38:37 51°13.638 2°56.017 22.1093 0.084449 0.34293 -2.458615
2012-05-29 02:38:42 51°13.639 2°56.017 22.1093 0.084449 0.342934 -2.458615
2012-05-29 02:38:47 51°13.639 2°56.017 22.1094 0.084449 0.342938 -2.458615
2012-05-29 02:38:52 51°13.638 2°56.017 22.1102 0.084449 0.342942 -2.458615
2012-05-29 02:38:57 51°13.638 2°56.017 22.1114 0.084449 0.342946 -2.458615
2012-05-29 02:39:02 51°13.638 2°56.017 22.1102 0.084449 0.342946 -2.458615
2012-05-29 02:39:07 51°13.638 2°56.017 22.11 0.084449 0.342946 -2.458615
2012-05-29 02:39:12 51°13.639 2°56.017 22.1086 0.084449 0.342949 -2.458615
2012-05-29 02:39:17 51°13.639 2°56.017 22.1073 0.084347 0.342529 -2.458615
2012-05-29 02:39:22 51°13.638 2°56.017 22.1061 0.084449 0.342961 -2.458615
2012-05-29 02:39:27 51°13.638 2°56.017 22.1055 0.084347 0.342533 -2.458615
2012-05-29 02:39:32 51°13.638 2°56.017 22.105 0.084347 0.342533 -2.458615
2012-05-29 02:39:37 51°13.638 2°56.017 22.1049 0.084347 0.342537 -2.458615
2012-05-29 02:39:42 51°13.638 2°56.017 22.1051 0.084449 0.342965 -2.458615
2012-05-29 02:39:47 51°13.638 2°56.017 22.1038 0.084347 0.342541 -2.458615
2012-05-29 02:39:52 51°13.638 2°56.017 22.1036 0.084449 0.342973 -2.458615
2012-05-29 02:39:57 51°13.638 2°56.017 22.1042 0.084552 0.343405 -2.458615
2012-05-29 02:40:02 51°13.638 2°56.017 22.1051 0.084552 0.343405 -2.458615
2012-05-29 02:40:06 51°13.637 2°56.017 22.1071 0.084347 0.342553 -2.458615
2012-05-29 02:40:11 51°13.637 2°56.017 22.1072 0.084552 0.343413 -2.458615
2012-05-29 02:40:16 51°13.637 2°56.017 22.107 0.084449 0.342989 -2.458615
2012-05-29 02:40:21 51°13.637 2°56.017 22.1017 0.084449 0.342989 -2.458615
2012-05-29 02:40:26 51°13.637 2°56.017 22.0936 0.084449 0.342993 -2.458615
2012-05-29 02:40:31 51°13.637 2°56.017 22.0989 0.084449 0.342993 -2.458615
2012-05-29 02:40:37 51°13.637 2°56.017 22.1031 0.084449 0.342997 -2.458615
2012-05-29 02:40:42 51°13.637 2°56.017 22.1011 0.084347 0.342573 -2.458615
2012-05-29 02:40:47 51°13.637 2°56.017 22.0998 0.084552 0.343429 -2.458615
2012-05-29 02:40:52 51°13.637 2°56.017 22.1024 0.084449 0.343005 -2.458615
2012-05-29 02:40:57 51°13.637 2°56.017 22.1033 0.084347 0.342585 -2.458615
2012-05-29 02:41:02 51°13.637 2°56.017 22.1049 0.084347 0.342585 -2.458615
2012-05-29 02:41:07 51°13.637 2°56.017 22.1036 0.084449 0.343013 -2.458615
2012-05-29 02:41:12 51°13.637 2°56.017 22.1003 0.084449 0.343017 -2.458615
2012-05-29 02:41:17 51°13.637 2°56.017 22.0989 0.084449 0.343017 -2.458615
2012-05-29 02:41:21 51°13.637 2°56.017 22.0982 0.084449 0.343025 -2.458615
2012-05-29 02:41:27 51°13.637 2°56.017 22.0971 0.084449 0.343029 -2.458615
2012-05-29 02:41:32 51°13.637 2°56.017 22.0968 0.084449 0.343029 -2.458615
2012-05-29 02:41:36 51°13.637 2°56.017 22.0985 0.084449 0.343029 -2.458615
2012-05-29 02:41:41 51°13.637 2°56.017 22.1001 0.084449 0.343033 -2.458615
2012-05-29 02:41:47 51°13.637 2°56.017 22.0992 0.084449 0.343041 -2.458615
2012-05-29 02:41:51 51°13.637 2°56.017 22.0988 0.084449 0.343037 -2.458615
2012-05-29 02:41:56 51°13.637 2°56.017 22.0994 0.084449 0.343041 -2.458615
2012-05-29 02:42:01 51°13.637 2°56.017 22.0993 0.084449 0.343041 -2.458615
2012-05-29 02:42:06 51°13.637 2°56.017 22.0983 0.084449 0.343045 -2.458615
2012-05-29 02:42:11 51°13.637 2°56.018 22.1002 0.084449 0.343049 -2.458615
2012-05-29 02:42:16 51°13.637 2°56.018 22.1067 0.084449 0.343052 -2.458615
2012-05-29 02:42:21 51°13.637 2°56.018 22.1121 0.084347 0.342628 -2.458615
2012-05-29 02:42:26 51°13.637 2°56.018 22.1109 0.084449 0.34306 -2.458615
2012-05-29 02:42:31 51°13.637 2°56.018 22.1261 0.084449 0.34306 -2.458615
2012-05-29 02:42:36 51°13.637 2°56.018 22.1372 0.084449 0.343064 -2.458615
2012-05-29 02:42:41 51°13.637 2°56.018 22.129 0.084449 0.343064 -2.458615
2012-05-29 02:42:46 51°13.637 2°56.019 22.1156 0.084449 0.343072 -2.458615
2012-05-29 02:42:51 51°13.637 2°56.019 22.116 0.084449 0.343072 -2.458615
2012-05-29 02:42:56 51°13.637 2°56.019 22.1182 0.084347 0.342648 -2.458615
2012-05-29 02:43:02 51°13.637 2°56.019 22.1157 0.084347 0.342648 -2.458615
2012-05-29 02:43:07 51°13.637 2°56.019 22.1154 0.084449 0.34308 -2.458615
2012-05-29 02:43:12 51°13.637 2°56.019 22.1147 0.084347 0.342656 -2.458615
2012-05-29 02:43:17 51°13.637 2°56.019 22.1145 0.084449 0.343088 -2.458615
2012-05-29 02:43:22 51°13.637 2°56.019 22.1136 0.084449 0.343092 -2.458615
2012-05-29 02:43:27 51°13.637 2°56.019 22.1135 0.084449 0.343096 -2.458615
2012-05-29 02:43:31 51°13.637 2°56.019 22.1128 0.084449 0.343096 -2.458615
2012-05-29 02:43:36 51°13.637 2°56.019 22.1113 0.084449 0.343096 -2.458615
2012-05-29 02:43:41 51°13.637 2°56.019 22.1109 0.084347 0.342672 -2.458615
2012-05-29 02:43:46 51°13.637 2°56.019 22.1113 0.084347 0.342676 -2.458615
2012-05-29 02:43:52 51°13.636 2°56.019 22.1105 0.084347 0.34268 -2.458615
2012-05-29 02:43:56 51°13.636 2°56.019 22.1084 0.084347 0.34268 -2.458615
2012-05-29 02:44:01 51°13.636 2°56.019 22.1067 0.084347 0.34268 -2.458615
2012-05-29 02:44:06 51°13.636 2°56.019 22.1088 0.084449 0.343116 -2.458615
2012-05-29 02:44:11 51°13.636 2°56.019 22.1091 0.084449 0.343116 -2.458615
2012-05-29 02:44:16 51°13.636 2°56.019 22.1098 0.084449 0.34312 -2.458615
2012-05-29 02:44:22 51°13.636 2°56.019 22.1069 0.084347 0.342696 -2.458615
2012-05-29 02:44:27 51°13.636 2°56.019 22.1058 0.084449 0.343124 -2.458615
2012-05-29 02:44:32 51°13.636 2°56.019 22.1051 0.084449 0.343124 -2.458615
2012-05-29 02:44:37 51°13.636 2°56.019 22.1051 0.084347 0.342704 -2.458615
2012-05-29 02:44:42 51°13.636 2°56.019 22.1052 0.084449 0.343132 -2.458615
2012-05-29 02:44:47 51°13.636 2°56.019 22.1052 0.084347 0.342708 -2.458615
2012-05-29 02:44:52 51°13.636 2°56.019 22.1066 0.084347 0.342712 -2.458615
2012-05-29 02:44:57 51°13.636 2°56.019 22.1055 0.084449 0.343144 -2.458615
2012-05-29 02:45:02 51°13.636 2°56.019 22.1071 0.084449 0.343144 -2.458615
2012-05-29 02:45:07 51°13.636 2°56.019 22.1071 0.084347 0.342719 -2.458615
2012-05-29 02:45:12 51°13.636 2°56.019 22.1072 0.084347 0.342723 -2.458615
2012-05-29 02:45:17 51°13.636 2°56.019 22.1096 0.084347 0.342723 -2.458615
2012-05-29 02:45:22 51°13.636 2°56.019 22.1108 0.084449 0.343156 -2.458615
2012-05-29 02:45:27 51°13.636 2°56.019 22.1078 0.084449 0.343163 -2.458615
2012-05-29 02:45:32 51°13.636 2°56.019 22.1045 0.084449 0.343163 -2.458615
2012-05-29 02:45:36 51°13.636 2°56.019 22.1036 0.084347 0.342739 -2.458615
2012-05-29 02:45:41 51°13.636 2°56.019 22.1036 0.084244 0.342311 -2.458615
2012-05-29 02:45:46 51°13.636 2°56.019 22.1066 0.084347 0.342739 -2.458615
2012-05-29 02:45:51 51°13.636 2°56.019 22.1072 0.084347 0.342747 -2.458615
2012-05-29 02:45:56 51°13.636 2°56.019 22.1048 0.084449 0.343179 -2.458615
2012-05-29 02:46:01 51°13.636 2°56.019 22.1048 0.084449 0.343179 -2.458615
2012-05-29 02:46:06 51°13.636 2°56.019 22.1052 0.084449 0.343179 -2.458615
2012-05-29 02:46:11 51°13.636 2°56.019 22.1046 0.084449 0.343187 -2.458615
2012-05-29 02:46:16 51°13.636 2°56.018 22.1063 0.084347 0.342759 -2.458615
2012-05-29 02:46:21 51°13.636 2°56.018 22.1047 0.084347 0.342759 -2.458615
2012-05-29 02:46:26 51°13.636 2°56.018 22.1042 0.084347 0.342767 -2.458615
2012-05-29 02:46:32 51°13.636 2°56.018 22.1031 0.084347 0.342767 -2.458615
2012-05-29 02:46:37 51°13.636 2°56.019 22.1036 0.084347 0.342767 -2.458615
2012-05-29 02:46:42 51°13.636 2°56.019 22.1045 0.084347 0.342771 -2.458615
2012-05-29 02:46:47 51°13.636 2°56.019 22.1051 0.084449 0.343203 -2.458615
2012-05-29 02:46:52 51°13.636 2°56.019 22.106 0.084449 0.343203 -2.458615
2012-05-29 02:46:57 51°13.636 2°56.019 22.1064 0.084449 0.343207 -2.458615
2012-05-29 02:47:02 51°13.636 2°56.019 22.1062 0.084449 0.343207 -2.458615
2012-05-29 02:47:07 51°13.636 2°56.019 22.1052 0.084347 0.342783 -2.458615
2012-05-29 02:47:12 51°13.636 2°56.019 22.1058 0.084347 0.342787 -2.458615
2012-05-29 02:47:17 51°13.636 2°56.019 22.1053 0.084347 0.342791 -2.458615
2012-05-29 02:47:21 51°13.636 2°56.019 22.1054 0.084449 0.343223 -2.458615
2012-05-29 02:47:27 51°13.636 2°56.019 22.1058 0.084449 0.343227 -2.458615
2012-05-29 02:47:31 51°13.636 2°56.019 22.1069 0.084449 0.343227 -2.458615
2012-05-29 02:47:36 51°13.637 2°56.019 22.1068 0.084449 0.343235 -2.458615
2012-05-29 02:47:41 51°13.637 2°56.019 22.1067 0.084449 0.343231 -2.458615
2012-05-29 02:47:46 51°13.637 2°56.019 22.1071 0.084244 0.342378 -2.458615
2012-05-29 02:47:51 51°13.637 2°56.019 22.1065 0.084347 0.342811 -2.458615
2012-05-29 02:47:56 51°13.637 2°56.019 22.107 0.084244 0.342382 -2.458615
2012-05-29 02:48:02 51°13.637 2°56.019 22.107 0.084244 0.342382 -2.458615
2012-05-29 02:48:07 51°13.637 2°56.019 22.1064 0.084244 0.342382 -2.458615
2012-05-29 02:48:12 51°13.637 2°56.019 22.1057 0.084347 0.342822 -2.458615
2012-05-29 02:48:17 51°13.637 2°56.019 22.1047 0.084347 0.342822 -2.458615
2012-05-29 02:48:21 51°13.637 2°56.019 22.1045 0.084449 0.343255 -2.458615
2012-05-29 02:48:27 51°13.637 2°56.019 22.104 0.084347 0.342826 -2.458615
2012-05-29 02:48:32 51°13.637 2°56.019 22.1038 0.084347 0.342826 -2.458615
2012-05-29 02:48:36 51°13.637 2°56.019 22.1031 0.084347 0.34283 -2.458615
2012-05-29 02:48:41 51°13.637 2°56.019 22.1047 0.084347 0.342838 -2.458615
2012-05-29 02:48:46 51°13.637 2°56.019 22.1039 0.084244 0.34241 -2.458615
2012-05-29 02:48:51 51°13.637 2°56.019 22.1038 0.084347 0.342838 -2.458615
2012-05-29 02:48:56 51°13.637 2°56.019 22.1053 0.084347 0.342842 -2.458615
2012-05-29 02:49:01 51°13.637 2°56.019 22.1038 0.084347 0.342842 -2.458615
2012-05-29 02:49:07 51°13.637 2°56.019 22.1034 0.084347 0.342846 -2.458615
2012-05-29 02:49:12 51°13.637 2°56.019 22.1046 0.084347 0.342854 -2.458615
2012-05-29 02:49:17 51°13.637 2°56.019 22.1045 0.084347 0.34285 -2.458615
2012-05-29 02:49:21 51°13.636 2°56.019 22.1039 0.084347 0.342858 -2.458615
2012-05-29 02:49:26 51°13.636 2°56.019 22.1049 0.084347 0.342862 -2.458615
2012-05-29 02:49:32 51°13.636 2°56.019 22.1062 0.084347 0.342862 -2.458615
2012-05-29 02:49:37 51°13.636 2°56.019 22.1053 0.084347 0.342862 -2.458615
2012-05-29 02:49:42 51°13.636 2°56.019 22.1038 0.084347 0.34287 -2.458615
2012-05-29 02:49:47 51°13.636 2°56.019 22.1047 0.084347 0.34287 -2.458615
2012-05-29 02:49:52 51°13.636 2°56.019 22.1038 0.084449 0.343302 -2.458615
2012-05-29 02:49:57 51°13.636 2°56.019 22.1039 0.084449 0.343302 -2.458615
2012-05-29 02:50:02 51°13.636 2°56.019 22.1036 0.084449 0.343302 -2.458615
2012-05-29 02:50:07 51°13.636 2°56.019 22.1036 0.084347 0.342882 -2.458615
2012-05-29 02:50:11 51°13.636 2°56.019 22.104 0.084347 0.342882 -2.458615
2012-05-29 02:50:16 51°13.636 2°56.019 22.1039 0.084347 0.342886 -2.458615
2012-05-29 02:50:21 51°13.636 2°56.019 22.1011 0.084347 0.34289 -2.458615
2012-05-29 02:50:26 51°13.636 2°56.019 22.1019 0.084347 0.34289 -2.458615
2012-05-29 02:50:31 51°13.636 2°56.019 22.1021 0.084347 0.34289 -2.458615
2012-05-29 02:50:36 51°13.636 2°56.019 22.1024 0.084347 0.342894 -2.458615
2012-05-29 02:50:41 51°13.636 2°56.019 22.1016 0.084244 0.342473 -2.458615
2012-05-29 02:50:46 51°13.636 2°56.019 22.1015 0.084244 0.342473 -2.458615
2012-05-29 02:50:52 51°13.636 2°56.019 22.1016 0.084347 0.342906 -2.458615
2012-05-29 02:50:57 51°13.636 2°56.019 22.1012 0.084449 0.343338 -2.458615
2012-05-29 02:51:02 51°13.636 2°56.019 22.1017 0.084449 0.343338 -2.458615
2012-05-29 02:51:07 51°13.637 2°56.02 22.1025 0.084347 0.34291 -2.458615
2012-05-29 02:51:12 51°13.636 2°56.02 22.1007 0.084449 0.343342 -2.458615
2012-05-29 02:51:17 51°13.637 2°56.02 22.1011 0.084347 0.342918 -2.458615
2012-05-29 02:51:22 51°13.637 2°56.02 22.1023 0.084347 0.342922 -2.458615
2012-05-29 02:51:27 51°13.637 2°56.02 22.1021 0.084347 0.342926 -2.458615
2012-05-29 02:51:31 51°13.637 2°56.02 22.1024 0.084347 0.342926 -2.458615
2012-05-29 02:51:36 51°13.637 2°56.02 22.1011 0.084347 0.342926 -2.458615
2012-05-29 02:51:41 51°13.637 2°56.02 22.1021 0.084244 0.342501 -2.458615
2012-05-29 02:51:46 51°13.637 2°56.02 22.1016 0.084244 0.342505 -2.458615
2012-05-29 02:51:51 51°13.637 2°56.019 22.1019 0.084449 0.343366 -2.458615
2012-05-29 02:51:56 51°13.637 2°56.019 22.1019 0.084347 0.342941 -2.458615
2012-05-29 02:52:01 51°13.637 2°56.019 22.1007 0.084347 0.342941 -2.458615
2012-05-29 02:52:06 51°13.637 2°56.019 22.1013 0.084347 0.342945 -2.458615
2012-05-29 02:52:11 51°13.637 2°56.019 22.1031 0.084449 0.343374 -2.458615
2012-05-29 02:52:16 51°13.637 2°56.019 22.1016 0.084347 0.342949 -2.458615
2012-05-29 02:52:21 51°13.637 2°56.019 22.1017 0.084449 0.343382 -2.458615
2012-05-29 02:52:26 51°13.637 2°56.019 22.0993 0.084347 0.342953 -2.458615
2012-05-29 02:52:31 51°13.637 2°56.019 22.099 0.084347 0.342953 -2.458615
2012-05-29 02:52:36 51°13.637 2°56.019 22.0993 0.084347 0.342961 -2.458615
2012-05-29 02:52:41 51°13.637 2°56.019 22.0969 0.084347 0.342961 -2.458615
2012-05-29 02:52:46 51°13.637 2°56.019 22.0981 0.084347 0.342965 -2.458615
2012-05-29 02:52:51 51°13.637 2°56.019 22.0979 0.084347 0.342965 -2.458615
2012-05-29 02:52:56 51°13.637 2°56.019 22.097 0.084449 0.343398 -2.458615
2012-05-29 02:53:01 51°13.637 2°56.019 22.0969 0.084449 0.343398 -2.458615
2012-05-29 02:53:06 51°13.637 2°56.019 22.0979 0.084347 0.342973 -2.458615
2012-05-29 02:53:11 51°13.637 2°56.019 22.0968 0.084347 0.342977 -2.458615
2012-05-29 02:53:16 51°13.637 2°56.018 22.0979 0.084347 0.342977 -2.458615
2012-05-29 02:53:21 51°13.637 2°56.018 22.0986 0.084449 0.343414 -2.458615
2012-05-29 02:53:26 51°13.636 2°56.018 22.0981 0.084347 0.342989 -2.458615
2012-05-29 02:53:31 51°13.636 2°56.018 22.0981 0.084347 0.342989 -2.458615
2012-05-29 02:53:36 51°13.637 2°56.018 22.0985 0.084347 0.342989 -2.458615
2012-05-29 02:53:41 51°13.637 2°56.018 22.0995 0.084244 0.342564 -2.458615
2012-05-29 02:53:46 51°13.637 2°56.019 22.099 0.084347 0.342993 -2.458615
2012-05-29 02:53:51 51°13.636 2°56.019 22.097 0.084244 0.342572 -2.458615
2012-05-29 02:53:56 51°13.636 2°56.019 22.0973 0.084244 0.342572 -2.458615
2012-05-29 02:54:01 51°13.636 2°56.019 22.0967 0.084244 0.342572 -2.458615
2012-05-29 02:54:06 51°13.636 2°56.019 22.0967 0.084347 0.343005 -2.458615
2012-05-29 02:54:11 51°13.636 2°56.019 22.0974 0.084347 0.343005 -2.458615
2012-05-29 02:54:16 51°13.636 2°56.019 22.098 0.084347 0.343013 -2.458615
2012-05-29 02:54:21 51°13.636 2°56.019 22.0973 0.084347 0.343017 -2.458615
2012-05-29 02:54:26 51°13.637 2°56.019 22.0969 0.084244 0.342588 -2.458615
2012-05-29 02:54:31 51°13.637 2°56.019 22.0976 0.084244 0.342588 -2.458615
2012-05-29 02:54:36 51°13.637 2°56.019 22.0971 0.084244 0.342592 -2.458615
2012-05-29 02:54:41 51°13.637 2°56.019 22.0981 0.084347 0.343025 -2.458615
2012-05-29 02:54:46 51°13.637 2°56.019 22.0966 0.084347 0.343029 -2.458615
2012-05-29 02:54:51 51°13.636 2°56.019 22.0974 0.084244 0.3426 -2.458615
2012-05-29 02:54:57 51°13.636 2°56.019 22.0976 0.084347 0.343033 -2.458615
2012-05-29 02:55:02 51°13.636 2°56.019 22.0974 0.084347 0.343033 -2.458615
2012-05-29 02:55:07 51°13.636 2°56.019 22.097 0.084347 0.343037 -2.458615
2012-05-29 02:55:12 51°13.636 2°56.019 22.0975 0.084347 0.343041 -2.458615
2012-05-29 02:55:17 51°13.636 2°56.019 22.0982 0.084347 0.343045 -2.458615
2012-05-29 02:55:22 51°13.636 2°56.019 22.0978 0.084244 0.34262 -2.458615
2012-05-29 02:55:27 51°13.636 2°56.019 22.099 0.084347 0.343049 -2.458615
2012-05-29 02:55:32 51°13.636 2°56.019 22.0992 0.084347 0.343049 -2.458615
2012-05-29 02:55:37 51°13.636 2°56.019 22.0997 0.084449 0.343485 -2.458615
2012-05-29 02:55:42 51°13.636 2°56.019 22.0995 0.084347 0.343056 -2.458615
2012-05-29 02:55:47 51°13.636 2°56.019 22.0996 0.084244 0.342632 -2.458615
2012-05-29 02:55:52 51°13.636 2°56.019 22.0997 0.084244 0.342636 -2.458615
2012-05-29 02:55:57 51°13.636 2°56.019 22.1003 0.084347 0.343068 -2.458615
2012-05-29 02:56:02 51°13.636 2°56.019 22.0999 0.084347 0.343068 -2.458615
2012-05-29 02:56:07 51°13.636 2°56.019 22.0992 0.084244 0.34264 -2.458615
2012-05-29 02:56:12 51°13.636 2°56.019 22.0995 0.084347 0.343072 -2.458615
2012-05-29 02:56:17 51°13.636 2°56.019 22.0984 0.084347 0.343076 -2.458615
2012-05-29 02:56:22 51°13.636 2°56.019 22.0987 0.084347 0.34308 -2.458615
2012-05-29 02:56:27 51°13.636 2°56.019 22.0981 0.084347 0.343084 -2.458615
2012-05-29 02:56:32 51°13.637 2°56.019 22.0979 0.084347 0.343084 -2.458615
2012-05-29 02:56:37 51°13.636 2°56.019 22.0975 0.084347 0.343084 -2.458615
2012-05-29 02:56:42 51°13.637 2°56.019 22.0967 0.084347 0.343088 -2.458615
2012-05-29 02:56:47 51°13.637 2°56.019 22.0962 0.084347 0.343092 -2.458615
2012-05-29 02:56:52 51°13.637 2°56.019 22.0952 0.084244 0.342664 -2.458615
2012-05-29 02:56:57 51°13.637 2°56.019 22.0963 0.084244 0.342672 -2.458615
2012-05-29 02:57:02 51°13.637 2°56.019 22.0984 0.084244 0.342672 -2.458615
2012-05-29 02:57:06 51°13.637 2°56.019 22.1009 0.084347 0.343104 -2.458615
2012-05-29 02:57:11 51°13.637 2°56.019 22.0973 0.084347 0.343104 -2.458615
2012-05-29 02:57:16 51°13.637 2°56.019 22.0953 0.084244 0.342679 -2.458615
2012-05-29 02:57:21 51°13.637 2°56.019 22.0939 0.084244 0.342683 -2.458615
2012-05-29 02:57:26 51°13.637 2°56.019 22.0939 0.084347 0.343116 -2.458615
2012-05-29 02:57:31 51°13.637 2°56.019 22.0935 0.084347 0.343116 -2.458615
2012-05-29 02:57:36 51°13.637 2°56.019 22.093 0.084347 0.34312 -2.458615
2012-05-29 02:57:41 51°13.637 2°56.019 22.0928 0.084244 0.342695 -2.458615
2012-05-29 02:57:46 51°13.637 2°56.019 22.0918 0.084347 0.343124 -2.458615
2012-05-29 02:57:51 51°13.637 2°56.019 22.0929 0.084244 0.342695 -2.458615
2012-05-29 02:57:56 51°13.637 2°56.019 22.0909 0.084449 0.343561 -2.458615
2012-05-29 02:58:01 51°13.637 2°56.019 22.0912 0.084449 0.343561 -2.458615
2012-05-29 02:58:06 51°13.637 2°56.019 22.092 0.084244 0.342707 -2.458615
2012-05-29 02:58:11 51°13.637 2°56.019 22.0912 0.084347 0.34314 -2.458615
2012-05-29 02:58:16 51°13.637 2°56.019 22.0925 0.084347 0.34314 -2.458615
2012-05-29 02:58:22 51°13.637 2°56.02 22.0918 0.084347 0.343144 -2.458615
2012-05-29 02:58:26 51°13.637 2°56.02 22.0919 0.084347 0.343144 -2.458615
2012-05-29 02:58:31 51°13.637 2°56.02 22.0922 0.084347 0.343144 -2.458615
2012-05-29 02:58:36 51°13.637 2°56.02 22.0927 0.084244 0.342723 -2.458615
2012-05-29 02:58:41 51°13.637 2°56.019 22.0939 0.084347 0.343152 -2.458615
2012-05-29 02:58:46 51°13.637 2°56.019 22.0951 0.084244 0.342727 -2.458615
2012-05-29 02:58:51 51°13.637 2°56.019 22.0938 0.084347 0.343164 -2.458615
2012-05-29 02:58:56 51°13.637 2°56.019 22.0926 0.084347 0.343164 -2.458615
2012-05-29 02:59:01 51°13.637 2°56.019 22.0923 0.084347 0.343164 -2.458615
2012-05-29 02:59:06 51°13.637 2°56.019 22.0921 0.084347 0.343164 -2.458615
2012-05-29 02:59:11 51°13.637 2°56.019 22.0923 0.084244 0.342743 -2.458615
2012-05-29 02:59:16 51°13.637 2°56.019 22.0915 0.084347 0.343176 -2.458615
2012-05-29 02:59:21 51°13.637 2°56.019 22.0912 0.084244 0.342747 -2.458615
2012-05-29 02:59:26 51°13.637 2°56.019 22.0915 0.084347 0.34318 -2.458615
2012-05-29 02:59:31 51°13.637 2°56.019 22.0907 0.084347 0.34318 -2.458615
2012-05-29 02:59:36 51°13.637 2°56.019 22.0903 0.084244 0.342755 -2.458615
2012-05-29 02:59:41 51°13.637 2°56.019 22.0899 0.084244 0.342759 -2.458615
2012-05-29 02:59:46 51°13.637 2°56.019 22.0905 0.084244 0.342759 -2.458615
2012-05-29 02:59:51 51°13.637 2°56.019 22.0901 0.084244 0.342763 -2.458615
2012-05-29 02:59:57 51°13.637 2°56.019 22.0899 0.084347 0.343196 -2.458615
2012-05-29 03:00:02 51°13.637 2°56.018 22.0904 0.084347 0.343196 -2.458615
2012-05-29 03:00:07 51°13.637 2°56.018 22.0901 0.084347 0.343199 -2.458615
2012-05-29 03:00:12 51°13.637 2°56.018 22.0922 0.084244 0.342775 -2.458615
2012-05-29 03:00:17 51°13.637 2°56.018 22.0929 0.084347 0.343207 -2.458615
2012-05-29 03:00:22 51°13.637 2°56.018 22.092 0.084244 0.342783 -2.458615
2012-05-29 03:00:26 51°13.637 2°56.018 22.0908 0.084347 0.343211 -2.458615
2012-05-29 03:00:31 51°13.637 2°56.018 22.0903 0.084347 0.343211 -2.458615
2012-05-29 03:00:37 51°13.637 2°56.018 22.088 0.084244 0.342791 -2.458615
2012-05-29 03:00:41 51°13.637 2°56.018 22.087 0.084244 0.342791 -2.458615
2012-05-29 03:00:46 51°13.637 2°56.018 22.0868 0.084244 0.342795 -2.458615
2012-05-29 03:00:51 51°13.637 2°56.018 22.0873 0.084244 0.342799 -2.458615
2012-05-29 03:00:57 51°13.637 2°56.018 22.0868 0.084347 0.343227 -2.458615
2012-05-29 03:01:02 51°13.637 2°56.018 22.0864 0.084347 0.343227 -2.458615
2012-05-29 03:01:07 51°13.637 2°56.018 22.0865 0.084244 0.342806 -2.458615
2012-05-29 03:01:12 51°13.637 2°56.018 22.0883 0.084347 0.343231 -2.458615
2012-05-29 03:01:17 51°13.637 2°56.018 22.0884 0.084347 0.343243 -2.458615
2012-05-29 03:01:22 51°13.637 2°56.018 22.0887 0.084347 0.343247 -2.458615
2012-05-29 03:01:27 51°13.637 2°56.018 22.0883 0.084244 0.342818 -2.458615
2012-05-29 03:01:32 51°13.637 2°56.018 22.0878 0.084244 0.342818 -2.458615
2012-05-29 03:01:37 51°13.637 2°56.018 22.0873 0.084347 0.343251 -2.458615
2012-05-29 03:01:42 51°13.637 2°56.018 22.0875 0.084244 0.342826 -2.458615
2012-05-29 03:01:46 51°13.637 2°56.018 22.0875 0.084244 0.34283 -2.458615
2012-05-29 03:01:51 51°13.637 2°56.018 22.087 0.084244 0.34283 -2.458615
2012-05-29 03:01:56 51°13.637 2°56.018 22.0861 0.084244 0.342838 -2.458615
2012-05-29 03:02:01 51°13.637 2°56.018 22.0871 0.084244 0.342838 -2.458615
2012-05-29 03:02:06 51°13.637 2°56.018 22.087 0.084347 0.343267 -2.458615
2012-05-29 03:02:11 51°13.637 2°56.018 22.0874 0.084244 0.342842 -2.458615
2012-05-29 03:02:16 51°13.637 2°56.018 22.087 0.084347 0.343275 -2.458615
2012-05-29 03:02:21 51°13.637 2°56.018 22.0872 0.084244 0.34285 -2.458615
2012-05-29 03:02:27 51°13.637 2°56.018 22.087 0.084244 0.34285 -2.458615
2012-05-29 03:02:32 51°13.637 2°56.018 22.0867 0.084244 0.34285 -2.458615
2012-05-29 03:02:37 51°13.637 2°56.018 22.0872 0.084244 0.342854 -2.458615
2012-05-29 03:02:42 51°13.637 2°56.018 22.0899 0.084347 0.343287 -2.458615
2012-05-29 03:02:47 51°13.637 2°56.018 22.0909 0.084244 0.342862 -2.458615
2012-05-29 03:02:52 51°13.637 2°56.018 22.0901 0.084244 0.342866 -2.458615
2012-05-29 03:02:56 51°13.637 2°56.018 22.0887 0.084244 0.34287 -2.458615
2012-05-29 03:03:01 51°13.637 2°56.018 22.0888 0.084244 0.34287 -2.458615
2012-05-29 03:03:06 51°13.637 2°56.018 22.0881 0.084244 0.342874 -2.458615
2012-05-29 03:03:11 51°13.637 2°56.018 22.0885 0.084244 0.342878 -2.458615
2012-05-29 03:03:16 51°13.637 2°56.018 22.0887 0.084244 0.342882 -2.458615
2012-05-29 03:03:21 51°13.637 2°56.018 22.0879 0.084244 0.342886 -2.458615
2012-05-29 03:03:26 51°13.637 2°56.018 22.0883 0.084347 0.343315 -2.458615
2012-05-29 03:03:32 51°13.637 2°56.018 22.0869 0.084347 0.343315 -2.458615
2012-05-29 03:03:36 51°13.637 2°56.018 22.0878 0.084244 0.34289 -2.458615
2012-05-29 03:03:41 51°13.637 2°56.018 22.0878 0.084244 0.342898 -2.458615
2012-05-29 03:03:46 51°13.637 2°56.018 22.0879 0.084244 0.342898 -2.458615
2012-05-29 03:03:52 51°13.637 2°56.018 22.0873 0.084347 0.343331 -2.458615
2012-05-29 03:03:57 51°13.637 2°56.018 22.0875 0.084347 0.343331 -2.458615
2012-05-29 03:04:02 51°13.637 2°56.018 22.0872 0.084347 0.343331 -2.458615
2012-05-29 03:04:07 51°13.637 2°56.018 22.0872 0.084347 0.343335 -2.458615
2012-05-29 03:04:12 51°13.637 2°56.018 22.0878 0.084347 0.343339 -2.458615
2012-05-29 03:04:17 51°13.637 2°56.018 22.0873 0.084347 0.343347 -2.458615
2012-05-29 03:04:22 51°13.637 2°56.018 22.0871 0.084244 0.342918 -2.458615
2012-05-29 03:04:26 51°13.637 2°56.018 22.0873 0.084244 0.342922 -2.458615
2012-05-29 03:04:32 51°13.637 2°56.019 22.0885 0.084244 0.342922 -2.458615
2012-05-29 03:04:37 51°13.637 2°56.019 22.0879 0.084244 0.342926 -2.458615
2012-05-29 03:04:42 51°13.636 2°56.019 22.0865 0.084244 0.34293 -2.458615
2012-05-29 03:04:46 51°13.636 2°56.019 22.0866 0.084244 0.34293 -2.458615
2012-05-29 03:04:51 51°13.636 2°56.019 22.0862 0.084244 0.342934 -2.458615
2012-05-29 03:04:56 51°13.636 2°56.019 22.0856 0.084347 0.343367 -2.458615
2012-05-29 03:05:01 51°13.636 2°56.019 22.085 0.084347 0.343367 -2.458615
2012-05-29 03:05:06 51°13.636 2°56.019 22.0849 0.084244 0.342942 -2.458615
2012-05-29 03:05:11 51°13.636 2°56.019 22.0846 0.084244 0.342945 -2.458615
2012-05-29 03:05:17 51°13.637 2°56.019 22.0843 0.084141 0.34252 -2.458615
2012-05-29 03:05:21 51°13.637 2°56.019 22.0847 0.084347 0.343382 -2.458615
2012-05-29 03:05:26 51°13.636 2°56.019 22.0849 0.084244 0.342953 -2.458615
2012-05-29 03:05:31 51°13.636 2°56.019 22.0843 0.084244 0.342953 -2.458615
2012-05-29 03:05:37 51°13.636 2°56.019 22.0835 0.084141 0.342528 -2.458615
2012-05-29 03:05:42 51°13.636 2°56.019 22.0845 0.084347 0.34339 -2.458615
2012-05-29 03:05:47 51°13.637 2°56.019 22.0858 0.084244 0.342965 -2.458615
2012-05-29 03:05:52 51°13.637 2°56.018 22.0856 0.084347 0.343398 -2.458615
2012-05-29 03:05:57 51°13.637 2°56.018 22.0847 0.084141 0.342544 -2.458615
2012-05-29 03:06:02 51°13.637 2°56.018 22.0837 0.084141 0.342544 -2.458615
2012-05-29 03:06:07 51°13.637 2°56.018 22.0845 0.084244 0.342977 -2.458615
2012-05-29 03:06:12 51°13.637 2°56.018 22.0851 0.084141 0.342548 -2.458615
2012-05-29 03:06:17 51°13.637 2°56.018 22.0837 0.084244 0.342981 -2.458615
2012-05-29 03:06:22 51°13.637 2°56.018 22.0843 0.084244 0.342981 -2.458615
2012-05-29 03:06:27 51°13.637 2°56.018 22.084 0.084244 0.342985 -2.458615
2012-05-29 03:06:32 51°13.637 2°56.018 22.0847 0.084244 0.342985 -2.458615
2012-05-29 03:06:37 51°13.637 2°56.018 22.0838 0.084141 0.34256 -2.458615
2012-05-29 03:06:42 51°13.637 2°56.018 22.0847 0.084347 0.343422 -2.458615
2012-05-29 03:06:47 51°13.636 2°56.018 22.0842 0.084244 0.342997 -2.458615
2012-05-29 03:06:52 51°13.636 2°56.018 22.0842 0.084244 0.343001 -2.458615
2012-05-29 03:06:57 51°13.636 2°56.018 22.084 0.084141 0.342576 -2.458615
2012-05-29 03:07:02 51°13.636 2°56.018 22.0833 0.084141 0.342576 -2.458615
2012-05-29 03:07:07 51°13.636 2°56.018 22.0843 0.084141 0.342576 -2.458615
2012-05-29 03:07:12 51°13.636 2°56.018 22.0849 0.084244 0.343013 -2.458615
2012-05-29 03:07:17 51°13.636 2°56.018 22.0844 0.084244 0.343013 -2.458615
2012-05-29 03:07:22 51°13.636 2°56.018 22.084 0.084244 0.343021 -2.458615
2012-05-29 03:07:27 51°13.636 2°56.018 22.0837 0.084244 0.343021 -2.458615
2012-05-29 03:07:32 51°13.636 2°56.018 22.0832 0.084244 0.343021 -2.458615
2012-05-29 03:07:37 51°13.636 2°56.018 22.0833 0.084244 0.343021 -2.458615
2012-05-29 03:07:42 51°13.636 2°56.018 22.0839 0.084244 0.343029 -2.458615
2012-05-29 03:07:47 51°13.636 2°56.019 22.084 0.084244 0.343029 -2.458615
2012-05-29 03:07:52 51°13.636 2°56.019 22.0837 0.084244 0.343037 -2.458615
2012-05-29 03:07:57 51°13.636 2°56.019 22.0831 0.084244 0.343037 -2.458615
2012-05-29 03:08:02 51°13.636 2°56.019 22.083 0.084244 0.343037 -2.458615
2012-05-29 03:08:07 51°13.636 2°56.018 22.083 0.084244 0.343041 -2.458615
2012-05-29 03:08:11 51°13.637 2°56.018 22.0824 0.084244 0.343041 -2.458615
2012-05-29 03:08:16 51°13.636 2°56.018 22.0828 0.084141 0.342616 -2.458615
2012-05-29 03:08:21 51°13.636 2°56.018 22.083 0.084244 0.343049 -2.458615
2012-05-29 03:08:26 51°13.636 2°56.018 22.0818 0.084244 0.343053 -2.458615
2012-05-29 03:08:32 51°13.636 2°56.018 22.0813 0.084244 0.343053 -2.458615
2012-05-29 03:08:37 51°13.636 2°56.018 22.0816 0.084141 0.342628 -2.458615
2012-05-29 03:08:42 51°13.636 2°56.018 22.0815 0.084244 0.343061 -2.458615
2012-05-29 03:08:47 51°13.636 2°56.018 22.0818 0.084141 0.342636 -2.458615
2012-05-29 03:08:52 51°13.636 2°56.018 22.0811 0.084244 0.343069 -2.458615
2012-05-29 03:08:57 51°13.636 2°56.018 22.0807 0.084141 0.34264 -2.458615
2012-05-29 03:09:02 51°13.636 2°56.018 22.0815 0.084141 0.34264 -2.458615
2012-05-29 03:09:07 51°13.636 2°56.018 22.0811 0.084244 0.343073 -2.458615
2012-05-29 03:09:11 51°13.636 2°56.018 22.0798 0.084244 0.343073 -2.458615
2012-05-29 03:09:17 51°13.636 2°56.018 22.0803 0.084244 0.343081 -2.458615
2012-05-29 03:09:22 51°13.636 2°56.018 22.08 0.084244 0.343085 -2.458615
2012-05-29 03:09:27 51°13.636 2°56.018 22.0801 0.084244 0.343085 -2.458615
2012-05-29 03:09:32 51°13.636 2°56.018 22.0799 0.084244 0.343085 -2.458615
2012-05-29 03:09:36 51°13.636 2°56.018 22.0801 0.084244 0.343089 -2.458615
2012-05-29 03:09:41 51°13.636 2°56.018 22.0796 0.084141 0.342663 -2.458615
2012-05-29 03:09:46 51°13.636 2°56.018 22.0806 0.084244 0.343097 -2.458615
2012-05-29 03:09:52 51°13.636 2°56.018 22.0803 0.084141 0.342667 -2.458615
2012-05-29 03:09:56 51°13.635 2°56.018 22.0797 0.084141 0.342671 -2.458615
2012-05-29 03:10:02 51°13.635 2°56.018 22.0802 0.084141 0.342671 -2.458615
2012-05-29 03:10:06 51°13.635 2°56.018 22.0799 0.084347 0.34353 -2.458615
2012-05-29 03:10:12 51°13.635 2°56.018 22.0797 0.084244 0.343109 -2.458615
2012-05-29 03:10:17 51°13.635 2°56.018 22.0799 0.084244 0.343109 -2.458615
2012-05-29 03:10:22 51°13.635 2°56.018 22.0799 0.084141 0.342687 -2.458615
2012-05-29 03:10:27 51°13.635 2°56.018 22.0807 0.084244 0.34312 -2.458615
2012-05-29 03:10:32 51°13.635 2°56.019 22.0804 0.084244 0.34312 -2.458615
2012-05-29 03:10:36 51°13.635 2°56.019 22.0806 0.084244 0.34312 -2.458615
2012-05-29 03:10:41 51°13.635 2°56.019 22.0808 0.084244 0.343124 -2.458615
2012-05-29 03:10:46 51°13.635 2°56.019 22.0811 0.084141 0.342699 -2.458615
2012-05-29 03:10:51 51°13.635 2°56.019 22.0818 0.084244 0.343132 -2.458615
2012-05-29 03:10:56 51°13.635 2°56.019 22.0816 0.084244 0.343136 -2.458615
2012-05-29 03:11:02 51°13.635 2°56.019 22.0818 0.084244 0.343136 -2.458615
2012-05-29 03:11:06 51°13.635 2°56.019 22.0806 0.084244 0.343136 -2.458615
2012-05-29 03:11:11 51°13.635 2°56.019 22.0803 0.084141 0.342715 -2.458615
2012-05-29 03:11:16 51°13.635 2°56.019 22.0799 0.084244 0.343144 -2.458615
2012-05-29 03:11:22 51°13.635 2°56.019 22.0795 0.084141 0.342719 -2.458615
2012-05-29 03:11:27 51°13.635 2°56.019 22.0792 0.084244 0.343148 -2.458615
2012-05-29 03:11:32 51°13.635 2°56.019 22.0793 0.084244 0.343148 -2.458615
2012-05-29 03:11:37 51°13.635 2°56.019 22.0789 0.084141 0.342723 -2.458615
2012-05-29 03:11:42 51°13.635 2°56.019 22.0783 0.084141 0.342727 -2.458615
2012-05-29 03:11:47 51°13.635 2°56.019 22.0786 0.084141 0.342731 -2.458615
2012-05-29 03:11:52 51°13.635 2°56.019 22.0781 0.084141 0.342735 -2.458615
2012-05-29 03:11:57 51°13.635 2°56.019 22.078 0.084244 0.343168 -2.458615
2012-05-29 03:12:02 51°13.635 2°56.019 22.078 0.084244 0.343168 -2.458615
2012-05-29 03:12:07 51°13.635 2°56.019 22.078 0.084141 0.342739 -2.458615
2012-05-29 03:12:12 51°13.635 2°56.019 22.0782 0.084141 0.342747 -2.458615
2012-05-29 03:12:17 51°13.635 2°56.019 22.0769 0.084244 0.343176 -2.458615
2012-05-29 03:12:21 51°13.635 2°56.019 22.0771 0.084347 0.343605 -2.458615
2012-05-29 03:12:27 51°13.635 2°56.019 22.0772 0.084141 0.342755 -2.458615
2012-05-29 03:12:32 51°13.635 2°56.019 22.0771 0.084141 0.342755 -2.458615
2012-05-29 03:12:36 51°13.635 2°56.02 22.0768 0.084141 0.342755 -2.458615
2012-05-29 03:12:41 51°13.635 2°56.02 22.0766 0.084141 0.342759 -2.458615
2012-05-29 03:12:47 51°13.635 2°56.02 22.0767 0.084141 0.342767 -2.458615
2012-05-29 03:12:51 51°13.635 2°56.02 22.0766 0.084141 0.342767 -2.458615
2012-05-29 03:12:57 51°13.635 2°56.02 22.0757 0.084141 0.342771 -2.458615
2012-05-29 03:13:02 51°13.635 2°56.02 22.0756 0.084141 0.342771 -2.458615
2012-05-29 03:13:07 51°13.635 2°56.019 22.076 0.084141 0.342775 -2.458615
2012-05-29 03:13:12 51°13.635 2°56.019 22.0763 0.084244 0.343204 -2.458615
2012-05-29 03:13:17 51°13.635 2°56.019 22.0759 0.084244 0.343208 -2.458615
2012-05-29 03:13:22 51°13.635 2°56.018 22.0759 0.084141 0.342783 -2.458615
2012-05-29 03:13:27 51°13.635 2°56.018 22.0762 0.084141 0.342783 -2.458615
2012-05-29 03:13:32 51°13.635 2°56.018 22.0764 0.084141 0.342783 -2.458615
2012-05-29 03:13:36 51°13.635 2°56.018 22.0761 0.084141 0.342787 -2.458615
2012-05-29 03:13:41 51°13.635 2°56.018 22.0766 0.084141 0.342791 -2.458615
2012-05-29 03:13:46 51°13.635 2°56.018 22.0773 0.084141 0.342795 -2.458615
2012-05-29 03:13:51 51°13.635 2°56.018 22.0769 0.084141 0.342799 -2.458615
2012-05-29 03:13:56 51°13.635 2°56.018 22.0769 0.084141 0.342803 -2.458615
2012-05-29 03:14:01 51°13.636 2°56.018 22.0765 0.084141 0.342803 -2.458615
2012-05-29 03:14:06 51°13.636 2°56.018 22.0764 0.084244 0.343232 -2.458615
2012-05-29 03:14:11 51°13.636 2°56.018 22.0755 0.084244 0.34324 -2.458615
2012-05-29 03:14:16 51°13.636 2°56.018 22.0761 0.084141 0.342815 -2.458615
2012-05-29 03:14:21 51°13.636 2°56.018 22.0754 0.084244 0.343248 -2.458615
2012-05-29 03:14:27 51°13.636 2°56.018 22.0759 0.084244 0.343252 -2.458615
2012-05-29 03:14:32 51°13.636 2°56.018 22.076 0.084244 0.343252 -2.458615
2012-05-29 03:14:37 51°13.636 2°56.018 22.0758 0.084141 0.342822 -2.458615
2012-05-29 03:14:42 51°13.636 2°56.018 22.0759 0.084244 0.343256 -2.458615
2012-05-29 03:14:47 51°13.636 2°56.018 22.0755 0.084141 0.34283 -2.458615
2012-05-29 03:14:52 51°13.636 2°56.018 22.0746 0.084141 0.342834 -2.458615
2012-05-29 03:14:57 51°13.636 2°56.018 22.0759 0.084244 0.343264 -2.458615
2012-05-29 03:15:02 51°13.636 2°56.018 22.0761 0.084244 0.343264 -2.458615
2012-05-29 03:15:06 51°13.636 2°56.018 22.0759 0.084141 0.342838 -2.458615
2012-05-29 03:15:11 51°13.636 2°56.019 22.075 0.084141 0.342842 -2.458615
2012-05-29 03:15:16 51°13.636 2°56.019 22.0749 0.084141 0.342846 -2.458615
2012-05-29 03:15:21 51°13.636 2°56.019 22.0742 0.084141 0.34285 -2.458615
2012-05-29 03:15:26 51°13.636 2°56.019 22.0758 0.084141 0.34285 -2.458615
2012-05-29 03:15:31 51°13.636 2°56.019 22.0746 0.084141 0.34285 -2.458615
2012-05-29 03:15:36 51°13.636 2°56.019 22.0749 0.084141 0.342854 -2.458615
2012-05-29 03:15:41 51°13.636 2°56.019 22.0753 0.084141 0.342858 -2.458615
2012-05-29 03:15:46 51°13.636 2°56.019 22.075 0.084141 0.342858 -2.458615
2012-05-29 03:15:52 51°13.636 2°56.019 22.0742 0.084038 0.342437 -2.458615
2012-05-29 03:15:57 51°13.636 2°56.019 22.0749 0.084141 0.342866 -2.458615
2012-05-29 03:16:02 51°13.636 2°56.019 22.0746 0.084141 0.342866 -2.458615
2012-05-29 03:16:07 51°13.636 2°56.019 22.0763 0.084141 0.342874 -2.458615
2012-05-29 03:16:12 51°13.636 2°56.019 22.076 0.084141 0.342874 -2.458615
2012-05-29 03:16:17 51°13.636 2°56.019 22.0749 0.084141 0.342878 -2.458615
2012-05-29 03:16:21 51°13.636 2°56.019 22.0752 0.084244 0.343312 -2.458615
2012-05-29 03:16:26 51°13.636 2°56.019 22.0755 0.084244 0.343316 -2.458615
2012-05-29 03:16:31 51°13.636 2°56.019 22.0759 0.084244 0.343316 -2.458615
2012-05-29 03:16:36 51°13.636 2°56.019 22.0759 0.084141 0.34289 -2.458615
2012-05-29 03:16:41 51°13.636 2°56.019 22.0751 0.084244 0.34332 -2.458615
2012-05-29 03:16:46 51°13.636 2°56.019 22.0759 0.084141 0.342894 -2.458615
2012-05-29 03:16:51 51°13.636 2°56.019 22.0762 0.084141 0.342902 -2.458615
2012-05-29 03:16:57 51°13.637 2°56.019 22.0769 0.084141 0.342906 -2.458615
2012-05-29 03:17:02 51°13.637 2°56.019 22.0766 0.084141 0.342906 -2.458615
2012-05-29 03:17:07 51°13.637 2°56.019 22.0762 0.084244 0.343336 -2.458615
2012-05-29 03:17:12 51°13.637 2°56.019 22.0762 0.084141 0.34291 -2.458615
2012-05-29 03:17:16 51°13.637 2°56.019 22.0758 0.084141 0.342914 -2.458615
2012-05-29 03:17:21 51°13.637 2°56.019 22.0764 0.084141 0.342918 -2.458615
2012-05-29 03:17:27 51°13.637 2°56.019 22.076 0.084141 0.342918 -2.458615
2012-05-29 03:17:32 51°13.637 2°56.019 22.0747 0.084141 0.342918 -2.458615
2012-05-29 03:17:36 51°13.637 2°56.019 22.0743 0.084141 0.342926 -2.458615
2012-05-29 03:17:41 51°13.637 2°56.019 22.0744 0.084038 0.342496 -2.458615
2012-05-29 03:17:46 51°13.637 2°56.019 22.0749 0.084244 0.343359 -2.458615
2012-05-29 03:17:51 51°13.637 2°56.019 22.0754 0.084141 0.34293 -2.458615
2012-05-29 03:17:57 51°13.637 2°56.019 22.0749 0.084141 0.342938 -2.458615
2012-05-29 03:18:01 51°13.637 2°56.019 22.0753 0.084141 0.342938 -2.458615
2012-05-29 03:18:06 51°13.637 2°56.019 22.0758 0.084244 0.343371 -2.458615
2012-05-29 03:18:11 51°13.637 2°56.02 22.0752 0.084038 0.342512 -2.458615
2012-05-29 03:18:16 51°13.637 2°56.02 22.0749 0.084141 0.34295 -2.458615
2012-05-29 03:18:21 51°13.637 2°56.02 22.0748 0.084141 0.34295 -2.458615
2012-05-29 03:18:26 51°13.637 2°56.02 22.0751 0.084141 0.342958 -2.458615
2012-05-29 03:18:32 51°13.637 2°56.02 22.0746 0.084141 0.342958 -2.458615
2012-05-29 03:18:37 51°13.637 2°56.02 22.0749 0.084244 0.343387 -2.458615
2012-05-29 03:18:42 51°13.637 2°56.02 22.074 0.084141 0.342962 -2.458615
2012-05-29 03:18:46 51°13.637 2°56.02 22.0721 0.084141 0.342962 -2.458615
2012-05-29 03:18:51 51°13.637 2°56.02 22.0712 0.084141 0.34297 -2.458615
2012-05-29 03:18:56 51°13.637 2°56.02 22.0701 0.084141 0.34297 -2.458615
2012-05-29 03:19:02 51°13.637 2°56.02 22.0704 0.084141 0.34297 -2.458615
2012-05-29 03:19:07 51°13.637 2°56.02 22.0694 0.084244 0.343403 -2.458615
2012-05-29 03:19:12 51°13.637 2°56.02 22.07 0.084141 0.342978 -2.458615
2012-05-29 03:19:16 51°13.637 2°56.02 22.0697 0.084141 0.342982 -2.458615
2012-05-29 03:19:21 51°13.637 2°56.02 22.0687 0.084244 0.343415 -2.458615
2012-05-29 03:19:26 51°13.637 2°56.02 22.0676 0.084141 0.34299 -2.458615
2012-05-29 03:19:32 51°13.637 2°56.02 22.0687 0.084141 0.34299 -2.458615
2012-05-29 03:19:37 51°13.637 2°56.02 22.0681 0.084141 0.342994 -2.458615
2012-05-29 03:19:42 51°13.637 2°56.02 22.0681 0.084244 0.343427 -2.458615
2012-05-29 03:19:47 51°13.637 2°56.02 22.0696 0.084244 0.343431 -2.458615
2012-05-29 03:19:52 51°13.637 2°56.02 22.0693 0.084141 0.343002 -2.458615
2012-05-29 03:19:57 51°13.637 2°56.02 22.0707 0.084141 0.343006 -2.458615
2012-05-29 03:20:02 51°13.637 2°56.02 22.0703 0.084141 0.343006 -2.458615
2012-05-29 03:20:07 51°13.637 2°56.02 22.0709 0.084141 0.34301 -2.458615
2012-05-29 03:20:12 51°13.637 2°56.02 22.0698 0.084038 0.342584 -2.458615
2012-05-29 03:20:17 51°13.638 2°56.02 22.0706 0.084141 0.343018 -2.458615
2012-05-29 03:20:22 51°13.638 2°56.02 22.0701 0.084141 0.343022 -2.458615
2012-05-29 03:20:27 51°13.638 2°56.02 22.0704 0.084141 0.343022 -2.458615
2012-05-29 03:20:32 51°13.638 2°56.02 22.0694 0.084141 0.343022 -2.458615
2012-05-29 03:20:37 51°13.638 2°56.02 22.0695 0.084038 0.3426 -2.458615
2012-05-29 03:20:42 51°13.638 2°56.02 22.0691 0.084038 0.342604 -2.458615
2012-05-29 03:20:47 51°13.638 2°56.02 22.0692 0.084244 0.343463 -2.458615
2012-05-29 03:20:52 51°13.638 2°56.02 22.0682 0.084141 0.343037 -2.458615
2012-05-29 03:20:57 51°13.638 2°56.02 22.0687 0.084141 0.343041 -2.458615
2012-05-29 03:21:02 51°13.638 2°56.02 22.0683 0.084141 0.343041 -2.458615
2012-05-29 03:21:07 51°13.638 2°56.02 22.0681 0.084141 0.343041 -2.458615
2012-05-29 03:21:11 51°13.638 2°56.02 22.0687 0.084141 0.343045 -2.458615
2012-05-29 03:21:16 51°13.638 2°56.02 22.0685 0.084038 0.342624 -2.458615
2012-05-29 03:21:21 51°13.638 2°56.02 22.0687 0.084141 0.343053 -2.458615
2012-05-29 03:21:26 51°13.638 2°56.02 22.0683 0.084141 0.343057 -2.458615
2012-05-29 03:21:31 51°13.638 2°56.02 22.0685 0.084141 0.343057 -2.458615
2012-05-29 03:21:36 51°13.638 2°56.02 22.0674 0.084141 0.343065 -2.458615
2012-05-29 03:21:41 51°13.638 2°56.019 22.0688 0.084141 0.343065 -2.458615
2012-05-29 03:21:46 51°13.638 2°56.019 22.0692 0.084141 0.343069 -2.458615
2012-05-29 03:21:52 51°13.638 2°56.019 22.0682 0.084141 0.343073 -2.458615
2012-05-29 03:21:57 51°13.637 2°56.019 22.0698 0.084141 0.343077 -2.458615
2012-05-29 03:22:02 51°13.637 2°56.019 22.0646 0.084141 0.343077 -2.458615
2012-05-29 03:22:07 51°13.637 2°56.019 22.0622 0.084038 0.342652 -2.458615
2012-05-29 03:22:12 51°13.637 2°56.018 22.0485 0.084141 0.343081 -2.458615
2012-05-29 03:22:17 51°13.638 2°56.018 22.066 0.084038 0.342656 -2.458615
2012-05-29 03:22:22 51°13.638 2°56.018 22.0628 0.084141 0.343089 -2.458615
2012-05-29 03:22:27 51°13.638 2°56.018 22.0795 0.084141 0.343097 -2.458615
2012-05-29 03:22:31 51°13.638 2°56.018 22.1102 0.084141 0.343097 -2.458615
2012-05-29 03:22:36 51°13.638 2°56.018 22.0783 0.084141 0.343093 -2.458615
2012-05-29 03:22:41 51°13.638 2°56.018 22.0833 0.084141 0.343097 -2.458615
2012-05-29 03:22:46 51°13.638 2°56.018 22.0856 0.084141 0.343101 -2.458615
2012-05-29 03:22:51 51°13.638 2°56.018 22.0756 0.084038 0.342676 -2.458615
2012-05-29 03:22:57 51°13.638 2°56.018 22.0825 0.084141 0.343109 -2.458615
2012-05-29 03:23:02 51°13.638 2°56.018 22.0851 0.084141 0.343109 -2.458615
2012-05-29 03:23:07 51°13.638 2°56.018 22.096 0.084141 0.343113 -2.458615
2012-05-29 03:23:12 51°13.638 2°56.018 22.0855 0.084141 0.343113 -2.458615
2012-05-29 03:23:17 51°13.638 2°56.018 22.0835 0.084038 0.342687 -2.458615
2012-05-29 03:23:22 51°13.638 2°56.018 22.0813 0.084038 0.342691 -2.458615
2012-05-29 03:23:27 51°13.638 2°56.018 22.071 0.084038 0.342695 -2.458615
2012-05-29 03:23:31 51°13.638 2°56.018 22.0678 0.084038 0.342695 -2.458615
2012-05-29 03:23:36 51°13.638 2°56.018 22.0687 0.084141 0.343125 -2.458615
2012-05-29 03:23:41 51°13.638 2°56.018 22.0756 0.084141 0.343133 -2.458615
2012-05-29 03:23:47 51°13.638 2°56.018 22.0717 0.084038 0.342707 -2.458615
2012-05-29 03:23:52 51°13.638 2°56.018 22.068 0.084141 0.343141 -2.458615
2012-05-29 03:23:57 51°13.638 2°56.018 22.0644 0.084038 0.342711 -2.458615
2012-05-29 03:24:02 51°13.638 2°56.018 22.0635 0.084038 0.342711 -2.458615
2012-05-29 03:24:07 51°13.637 2°56.018 22.066 0.084038 0.342715 -2.458615
2012-05-29 03:24:12 51°13.637 2°56.018 22.0682 0.084141 0.343149 -2.458615
2012-05-29 03:24:17 51°13.637 2°56.018 22.0726 0.084038 0.342723 -2.458615
2012-05-29 03:24:21 51°13.637 2°56.018 22.0693 0.084038 0.342723 -2.458615
2012-05-29 03:24:27 51°13.637 2°56.018 22.0601 0.084038 0.342727 -2.458615
2012-05-29 03:24:32 51°13.637 2°56.018 22.0585 0.084038 0.342727 -2.458615
2012-05-29 03:24:37 51°13.637 2°56.018 22.0623 0.084141 0.343165 -2.458615
2012-05-29 03:24:41 51°13.637 2°56.018 22.0666 0.084141 0.343165 -2.458615
2012-05-29 03:24:46 51°13.637 2°56.018 22.067 0.084038 0.342739 -2.458615
2012-05-29 03:24:51 51°13.637 2°56.019 22.0678 0.084244 0.343603 -2.458615
2012-05-29 03:24:56 51°13.637 2°56.019 22.0668 0.084141 0.343177 -2.458615
2012-05-29 03:25:01 51°13.637 2°56.019 22.0632 0.084141 0.343177 -2.458615
2012-05-29 03:25:07 51°13.637 2°56.019 22.0652 0.084141 0.343177 -2.458615
2012-05-29 03:25:12 51°13.637 2°56.019 22.0678 0.084141 0.343181 -2.458615
2012-05-29 03:25:17 51°13.637 2°56.019 22.0672 0.084038 0.342755 -2.458615
2012-05-29 03:25:22 51°13.637 2°56.02 22.0637 0.084141 0.343189 -2.458615
2012-05-29 03:25:27 51°13.637 2°56.02 22.0561 0.084038 0.342759 -2.458615
2012-05-29 03:25:32 51°13.637 2°56.019 22.0514 0.084038 0.342759 -2.458615
2012-05-29 03:25:37 51°13.636 2°56.019 22.0586 0.083935 0.342337 -2.458615
2012-05-29 03:25:42 51°13.636 2°56.019 22.0616 0.084141 0.343197 -2.458615
2012-05-29 03:25:47 51°13.636 2°56.019 22.0641 0.084038 0.342771 -2.458615
2012-05-29 03:25:52 51°13.636 2°56.019 22.0633 0.084141 0.343205 -2.458615
2012-05-29 03:25:57 51°13.636 2°56.019 22.0605 0.084141 0.343209 -2.458615
2012-05-29 03:26:02 51°13.636 2°56.019 22.0597 0.084141 0.343209 -2.458615
2012-05-29 03:26:07 51°13.636 2°56.018 22.057 0.084038 0.342783 -2.458615
2012-05-29 03:26:11 51°13.636 2°56.018 22.0547 0.084141 0.343213 -2.458615
2012-05-29 03:26:17 51°13.636 2°56.019 22.0551 0.084141 0.343221 -2.458615
2012-05-29 03:26:21 51°13.636 2°56.019 22.0542 0.084141 0.343221 -2.458615
2012-05-29 03:26:26 51°13.636 2°56.019 22.0544 0.084141 0.343225 -2.458615
2012-05-29 03:26:31 51°13.636 2°56.019 22.0552 0.084141 0.343225 -2.458615
2012-05-29 03:26:37 51°13.637 2°56.019 22.0534 0.084141 0.343229 -2.458615
2012-05-29 03:26:41 51°13.637 2°56.019 22.0536 0.084141 0.343229 -2.458615
2012-05-29 03:26:46 51°13.637 2°56.019 22.0539 0.084038 0.342803 -2.458615
2012-05-29 03:26:51 51°13.637 2°56.019 22.0538 0.084141 0.343237 -2.458615
2012-05-29 03:26:56 51°13.636 2°56.019 22.0531 0.084038 0.342811 -2.458615
2012-05-29 03:27:01 51°13.636 2°56.019 22.0549 0.084038 0.342811 -2.458615
2012-05-29 03:27:06 51°13.636 2°56.019 22.0539 0.084141 0.343241 -2.458615
2012-05-29 03:27:12 51°13.636 2°56.018 22.0526 0.084038 0.342815 -2.458615
2012-05-29 03:27:17 51°13.636 2°56.018 22.0502 0.084038 0.342819 -2.458615
2012-05-29 03:27:22 51°13.636 2°56.018 22.0481 0.084038 0.342823 -2.458615
2012-05-29 03:27:27 51°13.636 2°56.018 22.0495 0.084038 0.342827 -2.458615
2012-05-29 03:27:32 51°13.636 2°56.018 22.0492 0.084038 0.342827 -2.458615
2012-05-29 03:27:37 51°13.636 2°56.018 22.0478 0.084038 0.342835 -2.458615
2012-05-29 03:27:42 51°13.636 2°56.018 22.0474 0.084038 0.342835 -2.458615
2012-05-29 03:27:47 51°13.636 2°56.018 22.0472 0.084141 0.343265 -2.458615
2012-05-29 03:27:52 51°13.636 2°56.018 22.0472 0.084038 0.342843 -2.458615
2012-05-29 03:27:57 51°13.636 2°56.018 22.048 0.084141 0.343277 -2.458615
2012-05-29 03:28:02 51°13.636 2°56.018 22.0487 0.084141 0.343277 -2.458615
2012-05-29 03:28:07 51°13.636 2°56.018 22.0497 0.084038 0.342847 -2.458615
2012-05-29 03:28:12 51°13.636 2°56.017 22.0505 0.084038 0.342851 -2.458615
2012-05-29 03:28:16 51°13.636 2°56.017 22.0499 0.084141 0.343285 -2.458615
2012-05-29 03:28:21 51°13.636 2°56.017 22.0487 0.084141 0.343289 -2.458615
2012-05-29 03:28:26 51°13.636 2°56.017 22.048 0.084141 0.343289 -2.458615
2012-05-29 03:28:31 51°13.636 2°56.018 22.0466 0.084141 0.343289 -2.458615
2012-05-29 03:28:37 51°13.636 2°56.018 22.0457 0.084038 0.342867 -2.458615
2012-05-29 03:28:41 51°13.636 2°56.018 22.0447 0.084141 0.343297 -2.458615
2012-05-29 03:28:46 51°13.636 2°56.018 22.048 0.084038 0.342871 -2.458615
2012-05-29 03:28:51 51°13.636 2°56.018 22.049 0.084038 0.342875 -2.458615
2012-05-29 03:28:56 51°13.636 2°56.018 22.049 0.084038 0.342879 -2.458615
2012-05-29 03:29:01 51°13.636 2°56.018 22.0495 0.084038 0.342879 -2.458615
2012-05-29 03:29:07 51°13.636 2°56.018 22.0518 0.084141 0.343313 -2.458615
2012-05-29 03:29:12 51°13.636 2°56.018 22.0551 0.084141 0.343313 -2.458615
2012-05-29 03:29:17 51°13.636 2°56.018 22.0439 0.084038 0.342887 -2.458615
2012-05-29 03:29:22 51°13.636 2°56.018 22.0599 0.084038 0.342887 -2.458615
2012-05-29 03:29:27 51°13.636 2°56.018 22.0694 0.084038 0.342891 -2.458615
2012-05-29 03:29:32 51°13.636 2°56.018 22.074 0.084038 0.342891 -2.458615
2012-05-29 03:29:37 51°13.636 2°56.018 22.0778 0.084141 0.343325 -2.458615
2012-05-29 03:29:42 51°13.636 2°56.018 22.0738 0.084141 0.343329 -2.458615
2012-05-29 03:29:47 51°13.636 2°56.018 22.0693 0.084141 0.343333 -2.458615
2012-05-29 03:29:52 51°13.636 2°56.018 22.0625 0.084141 0.343337 -2.458615
2012-05-29 03:29:57 51°13.636 2°56.018 22.0621 0.084038 0.342911 -2.458615
2012-05-29 03:30:02 51°13.636 2°56.018 22.0603 0.084038 0.342911 -2.458615
2012-05-29 03:30:06 51°13.636 2°56.018 22.0543 0.084038 0.342911 -2.458615
2012-05-29 03:30:11 51°13.636 2°56.018 22.0484 0.084141 0.343349 -2.458615
2012-05-29 03:30:17 51°13.636 2°56.018 22.0483 0.084038 0.342919 -2.458615
2012-05-29 03:30:21 51°13.636 2°56.018 22.057 0.084038 0.342923 -2.458615
2012-05-29 03:30:27 51°13.636 2°56.018 22.063 0.084038 0.342927 -2.458615
2012-05-29 03:30:32 51°13.636 2°56.018 22.0623 0.084038 0.342927 -2.458615
2012-05-29 03:30:37 51°13.636 2°56.017 22.058 0.084038 0.342927 -2.458615
2012-05-29 03:30:42 51°13.636 2°56.017 22.0574 0.084141 0.343361 -2.458615
2012-05-29 03:30:47 51°13.636 2°56.017 22.069 0.084038 0.342939 -2.458615
2012-05-29 03:30:52 51°13.636 2°56.017 22.0619 0.083935 0.342508 -2.458615
2012-05-29 03:30:57 51°13.636 2°56.017 22.0589 0.084141 0.343369 -2.458615
2012-05-29 03:31:02 51°13.636 2°56.017 22.054 0.084141 0.343369 -2.458615
2012-05-29 03:31:07 51°13.636 2°56.017 22.0511 0.084038 0.342942 -2.458615
2012-05-29 03:31:12 51°13.636 2°56.017 22.0466 0.083935 0.34252 -2.458615
2012-05-29 03:31:17 51°13.636 2°56.017 22.0453 0.084038 0.34295 -2.458615
2012-05-29 03:31:22 51°13.636 2°56.017 22.0443 0.084038 0.342958 -2.458615
2012-05-29 03:31:27 51°13.636 2°56.017 22.0474 0.084141 0.343393 -2.458615
2012-05-29 03:31:32 51°13.636 2°56.017 22.0513 0.084141 0.343393 -2.458615
2012-05-29 03:31:37 51°13.636 2°56.018 22.0569 0.084038 0.342966 -2.458615
2012-05-29 03:31:42 51°13.636 2°56.018 22.0571 0.084038 0.342966 -2.458615
2012-05-29 03:31:46 51°13.637 2°56.018 22.0593 0.084038 0.34297 -2.458615
2012-05-29 03:31:52 51°13.638 2°56.019 22.0517 0.084038 0.342974 -2.458615
2012-05-29 03:31:57 51°13.638 2°56.019 22.0444 0.084141 0.343405 -2.458615
2012-05-29 03:32:02 51°13.638 2°56.019 22.0463 0.084141 0.343405 -2.458615
2012-05-29 03:32:06 51°13.638 2°56.019 22.0471 0.084038 0.342978 -2.458615
2012-05-29 03:32:11 51°13.638 2°56.019 22.0482 0.084038 0.342982 -2.458615
2012-05-29 03:32:16 51°13.638 2°56.02 22.0495 0.084038 0.342986 -2.458615
2012-05-29 03:32:21 51°13.638 2°56.02 22.0485 0.084141 0.34342 -2.458615
2012-05-29 03:32:27 51°13.638 2°56.02 22.0458 0.084038 0.342994 -2.458615
2012-05-29 03:32:32 51°13.638 2°56.02 22.0434 0.084038 0.342994 -2.458615
2012-05-29 03:32:37 51°13.638 2°56.02 22.0434 0.084038 0.342994 -2.458615
2012-05-29 03:32:42 51°13.638 2°56.02 22.0435 0.084038 0.342998 -2.458615
2012-05-29 03:32:46 51°13.638 2°56.02 22.0397 0.084038 0.343002 -2.458615
2012-05-29 03:32:51 51°13.638 2°56.02 22.041 0.083935 0.342576 -2.458615
2012-05-29 03:32:57 51°13.638 2°56.02 22.0449 0.084141 0.34344 -2.458615
2012-05-29 03:33:02 51°13.639 2°56.02 22.0451 0.084141 0.34344 -2.458615
2012-05-29 03:33:06 51°13.639 2°56.02 22.0451 0.083935 0.34258 -2.458615
2012-05-29 03:33:11 51°13.639 2°56.02 22.0415 0.083935 0.342588 -2.458615
2012-05-29 03:33:17 51°13.639 2°56.02 22.04 0.084038 0.343018 -2.458615
2012-05-29 03:33:22 51°13.639 2°56.02 22.04 0.083935 0.342596 -2.458615
2012-05-29 03:33:27 51°13.639 2°56.02 22.0406 0.084038 0.343026 -2.458615
2012-05-29 03:33:31 51°13.639 2°56.02 22.0409 0.084038 0.343026 -2.458615
2012-05-29 03:33:37 51°13.639 2°56.02 22.0395 0.084038 0.34303 -2.458615
2012-05-29 03:33:42 51°13.639 2°56.02 22.0413 0.083935 0.342604 -2.458615
2012-05-29 03:33:47 51°13.639 2°56.021 22.046 0.084038 0.343034 -2.458615
2012-05-29 03:33:51 51°13.639 2°56.021 22.048 0.084141 0.343468 -2.458615
2012-05-29 03:33:56 51°13.639 2°56.02 22.0477 0.084038 0.343042 -2.458615
2012-05-29 03:34:01 51°13.639 2°56.02 22.0468 0.084038 0.343042 -2.458615
2012-05-29 03:34:06 51°13.639 2°56.02 22.0468 0.084038 0.34305 -2.458615
2012-05-29 03:34:11 51°13.639 2°56.02 22.0458 0.084141 0.34348 -2.458615
2012-05-29 03:34:16 51°13.639 2°56.02 22.0457 0.083935 0.342624 -2.458615
2012-05-29 03:34:21 51°13.639 2°56.02 22.0461 0.084038 0.343058 -2.458615
2012-05-29 03:34:26 51°13.639 2°56.02 22.0463 0.084038 0.343062 -2.458615
2012-05-29 03:34:32 51°13.639 2°56.02 22.0471 0.084038 0.343062 -2.458615
2012-05-29 03:34:37 51°13.639 2°56.02 22.0458 0.083935 0.342632 -2.458615
2012-05-29 03:34:42 51°13.639 2°56.02 22.0444 0.083935 0.342636 -2.458615
2012-05-29 03:34:46 51°13.639 2°56.02 22.0428 0.083935 0.342644 -2.458615
2012-05-29 03:34:51 51°13.639 2°56.02 22.0439 0.083935 0.342644 -2.458615
2012-05-29 03:34:56 51°13.639 2°56.02 22.0448 0.084141 0.343508 -2.458615
2012-05-29 03:35:01 51°13.639 2°56.02 22.0462 0.084141 0.343508 -2.458615
2012-05-29 03:35:06 51°13.639 2°56.02 22.0449 0.084038 0.343082 -2.458615
2012-05-29 03:35:12 51°13.639 2°56.02 22.0432 0.084141 0.343516 -2.458615
2012-05-29 03:35:16 51°13.639 2°56.02 22.0404 0.083935 0.342656 -2.458615
2012-05-29 03:35:22 51°13.639 2°56.02 22.0404 0.084038 0.34309 -2.458615
2012-05-29 03:35:27 51°13.639 2°56.02 22.0414 0.083935 0.342664 -2.458615
2012-05-29 03:35:32 51°13.639 2°56.02 22.0438 0.083935 0.342664 -2.458615
2012-05-29 03:35:36 51°13.639 2°56.02 22.0445 0.084141 0.343528 -2.458615
2012-05-29 03:35:41 51°13.639 2°56.02 22.0437 0.084038 0.343102 -2.458615
2012-05-29 03:35:46 51°13.639 2°56.02 22.043 0.084038 0.343106 -2.458615
2012-05-29 03:35:52 51°13.639 2°56.02 22.0424 0.084038 0.343106 -2.458615
2012-05-29 03:35:56 51°13.639 2°56.02 22.0415 0.084038 0.34311 -2.458615
2012-05-29 03:36:01 51°13.639 2°56.02 22.0403 0.084038 0.34311 -2.458615
2012-05-29 03:36:07 51°13.64 2°56.02 22.0387 0.083935 0.342684 -2.458615
2012-05-29 03:36:12 51°13.64 2°56.02 22.0395 0.083935 0.342688 -2.458615
2012-05-29 03:36:16 51°13.64 2°56.02 22.0396 0.084038 0.343122 -2.458615
2012-05-29 03:36:22 51°13.64 2°56.02 22.0399 0.083935 0.3427 -2.458615
2012-05-29 03:36:27 51°13.64 2°56.02 22.04 0.084038 0.343126 -2.458615
2012-05-29 03:36:32 51°13.64 2°56.02 22.0388 0.084038 0.343126 -2.458615
2012-05-29 03:36:37 51°13.64 2°56.02 22.039 0.084038 0.343134 -2.458615
2012-05-29 03:36:42 51°13.64 2°56.021 22.0408 0.083935 0.342708 -2.458615
2012-05-29 03:36:47 51°13.641 2°56.021 22.0437 0.084038 0.343134 -2.458615
2012-05-29 03:36:52 51°13.641 2°56.021 22.0437 0.083935 0.342712 -2.458615
2012-05-29 03:36:57 51°13.641 2°56.021 22.0419 0.084038 0.343146 -2.458615
2012-05-29 03:37:02 51°13.641 2°56.021 22.0411 0.084038 0.343146 -2.458615
2012-05-29 03:37:07 51°13.641 2°56.021 22.0402 0.084141 0.343576 -2.458615
2012-05-29 03:37:11 51°13.641 2°56.021 22.0378 0.084141 0.34358 -2.458615
2012-05-29 03:37:16 51°13.641 2°56.021 22.0379 0.084038 0.343154 -2.458615
2012-05-29 03:37:21 51°13.641 2°56.021 22.0383 0.084141 0.343592 -2.458615
2012-05-29 03:37:26 51°13.641 2°56.02 22.0376 0.083935 0.342736 -2.458615
2012-05-29 03:37:31 51°13.641 2°56.02 22.0383 0.083935 0.342736 -2.458615
2012-05-29 03:37:37 51°13.641 2°56.02 22.0382 0.084038 0.343166 -2.458615
2012-05-29 03:37:42 51°13.641 2°56.02 22.0374 0.083935 0.34274 -2.458615
2012-05-29 03:37:47 51°13.641 2°56.02 22.0391 0.083935 0.342744 -2.458615
2012-05-29 03:37:52 51°13.641 2°56.02 22.0405 0.084038 0.343174 -2.458615
2012-05-29 03:37:57 51°13.641 2°56.02 22.045 0.084038 0.343182 -2.458615
2012-05-29 03:38:02 51°13.64 2°56.02 22.0451 0.084038 0.343182 -2.458615
2012-05-29 03:38:07 51°13.64 2°56.02 22.0445 0.083935 0.342756 -2.458615
2012-05-29 03:38:12 51°13.64 2°56.02 22.042 0.083935 0.34276 -2.458615
2012-05-29 03:38:17 51°13.64 2°56.02 22.0412 0.084038 0.343194 -2.458615
2012-05-29 03:38:22 51°13.64 2°56.02 22.0407 0.083935 0.342764 -2.458615
2012-05-29 03:38:27 51°13.64 2°56.02 22.0388 0.084038 0.343198 -2.458615
2012-05-29 03:38:32 51°13.64 2°56.02 22.0364 0.084038 0.343198 -2.458615
2012-05-29 03:38:37 51°13.64 2°56.02 22.0359 0.083833 0.342341 -2.458615
2012-05-29 03:38:42 51°13.639 2°56.019 22.0365 0.083935 0.342776 -2.458615
2012-05-29 03:38:47 51°13.639 2°56.019 22.0406 0.083935 0.34278 -2.458615
2012-05-29 03:38:51 51°13.639 2°56.019 22.0416 0.083935 0.342784 -2.458615
2012-05-29 03:38:56 51°13.639 2°56.019 22.0401 0.083833 0.342357 -2.458615
2012-05-29 03:39:01 51°13.639 2°56.019 22.0396 0.083833 0.342357 -2.458615
2012-05-29 03:39:07 51°13.639 2°56.019 22.0379 0.084038 0.343222 -2.458615
2012-05-29 03:39:12 51°13.639 2°56.019 22.0388 0.083935 0.342792 -2.458615
2012-05-29 03:39:16 51°13.639 2°56.019 22.041 0.083935 0.3428 -2.458615
2012-05-29 03:39:21 51°13.639 2°56.019 22.0428 0.084038 0.343226 -2.458615
2012-05-29 03:39:26 51°13.639 2°56.019 22.0413 0.084038 0.343234 -2.458615
2012-05-29 03:39:32 51°13.639 2°56.019 22.0406 0.084038 0.343234 -2.458615
2012-05-29 03:39:36 51°13.639 2°56.019 22.0401 0.084038 0.343238 -2.458615
2012-05-29 03:39:41 51°13.639 2°56.019 22.0393 0.083935 0.342808 -2.458615
2012-05-29 03:39:46 51°13.639 2°56.02 22.0379 0.083935 0.342816 -2.458615
2012-05-29 03:39:51 51°13.639 2°56.02 22.0382 0.083935 0.34282 -2.458615
2012-05-29 03:39:56 51°13.639 2°56.02 22.0381 0.084038 0.34325 -2.458615
2012-05-29 03:40:02 51°13.64 2°56.02 22.0381 0.084038 0.34325 -2.458615
2012-05-29 03:40:07 51°13.64 2°56.02 22.0379 0.083935 0.342824 -2.458615
2012-05-29 03:40:12 51°13.64 2°56.02 22.0379 0.083935 0.342828 -2.458615
2012-05-29 03:40:17 51°13.64 2°56.02 22.0371 0.083935 0.342832 -2.458615
2012-05-29 03:40:22 51°13.64 2°56.02 22.0361 0.084038 0.343266 -2.458615
2012-05-29 03:40:26 51°13.64 2°56.019 22.0356 0.083935 0.34284 -2.458615
2012-05-29 03:40:31 51°13.64 2°56.019 22.0361 0.083935 0.34284 -2.458615
2012-05-29 03:40:36 51°13.64 2°56.019 22.0381 0.084038 0.34327 -2.458615
2012-05-29 03:40:41 51°13.64 2°56.019 22.0399 0.083935 0.342847 -2.458615
2012-05-29 03:40:46 51°13.64 2°56.019 22.0409 0.083935 0.342847 -2.458615
2012-05-29 03:40:51 51°13.64 2°56.019 22.0415 0.083935 0.342851 -2.458615
2012-05-29 03:40:56 51°13.639 2°56.019 22.0432 0.083935 0.342855 -2.458615
2012-05-29 03:41:02 51°13.639 2°56.019 22.0424 0.083935 0.342855 -2.458615
2012-05-29 03:41:07 51°13.639 2°56.019 22.0429 0.084038 0.34329 -2.458615
2012-05-29 03:41:12 51°13.639 2°56.02 22.0413 0.084038 0.343294 -2.458615
2012-05-29 03:41:17 51°13.639 2°56.02 22.0404 0.083833 0.342433 -2.458615
2012-05-29 03:41:22 51°13.639 2°56.02 22.0398 0.083935 0.342871 -2.458615
2012-05-29 03:41:26 51°13.639 2°56.02 22.0381 0.083935 0.342875 -2.458615
2012-05-29 03:41:31 51°13.639 2°56.02 22.0383 0.083935 0.342875 -2.458615
2012-05-29 03:41:37 51°13.639 2°56.02 22.0376 0.083935 0.342875 -2.458615
2012-05-29 03:41:42 51°13.639 2°56.02 22.0353 0.083935 0.342879 -2.458615
2012-05-29 03:41:47 51°13.639 2°56.02 22.036 0.083935 0.342883 -2.458615
2012-05-29 03:41:52 51°13.639 2°56.02 22.0356 0.083833 0.342457 -2.458615
2012-05-29 03:41:57 51°13.639 2°56.02 22.0356 0.083935 0.342891 -2.458615
2012-05-29 03:42:02 51°13.639 2°56.02 22.0345 0.083935 0.342891 -2.458615
2012-05-29 03:42:07 51°13.639 2°56.02 22.0362 0.083935 0.342895 -2.458615
2012-05-29 03:42:12 51°13.639 2°56.02 22.037 0.083935 0.342899 -2.458615
2012-05-29 03:42:17 51°13.639 2°56.02 22.0396 0.084038 0.343334 -2.458615
2012-05-29 03:42:21 51°13.639 2°56.02 22.0401 0.083935 0.342903 -2.458615
2012-05-29 03:42:26 51°13.639 2°56.02 22.0417 0.084038 0.343342 -2.458615
2012-05-29 03:42:31 51°13.639 2°56.02 22.0403 0.084038 0.343342 -2.458615
2012-05-29 03:42:36 51°13.639 2°56.02 22.0402 0.084038 0.343342 -2.458615
2012-05-29 03:42:41 51°13.639 2°56.02 22.0381 0.083935 0.342915 -2.458615
2012-05-29 03:42:46 51°13.639 2°56.02 22.039 0.083833 0.342489 -2.458615
2012-05-29 03:42:51 51°13.639 2°56.02 22.0388 0.084038 0.343354 -2.458615
2012-05-29 03:42:56 51°13.638 2°56.019 22.0399 0.083935 0.342927 -2.458615
2012-05-29 03:43:02 51°13.638 2°56.019 22.0396 0.083935 0.342927 -2.458615
2012-05-29 03:43:07 51°13.638 2°56.019 22.0396 0.084038 0.343362 -2.458615
2012-05-29 03:43:12 51°13.638 2°56.019 22.0395 0.083935 0.342935 -2.458615
2012-05-29 03:43:17 51°13.638 2°56.019 22.0377 0.083833 0.342505 -2.458615
2012-05-29 03:43:22 51°13.638 2°56.019 22.0386 0.084038 0.34337 -2.458615
2012-05-29 03:43:27 51°13.638 2°56.019 22.0391 0.083833 0.342513 -2.458615
2012-05-29 03:43:31 51°13.638 2°56.019 22.0401 0.083833 0.342513 -2.458615
2012-05-29 03:43:37 51°13.637 2°56.019 22.0407 0.083935 0.342947 -2.458615
2012-05-29 03:43:42 51°13.637 2°56.018 22.04 0.083935 0.342951 -2.458615
2012-05-29 03:43:47 51°13.637 2°56.019 22.0383 0.083833 0.342521 -2.458615
2012-05-29 03:43:52 51°13.637 2°56.018 22.0388 0.083935 0.342959 -2.458615
2012-05-29 03:43:56 51°13.637 2°56.018 22.0385 0.083935 0.342959 -2.458615
2012-05-29 03:44:02 51°13.637 2°56.018 22.0392 0.083935 0.342959 -2.458615
2012-05-29 03:44:06 51°13.637 2°56.018 22.037 0.083935 0.342963 -2.458615
2012-05-29 03:44:11 51°13.637 2°56.018 22.0368 0.083935 0.342967 -2.458615
2012-05-29 03:44:16 51°13.637 2°56.018 22.036 0.083935 0.342967 -2.458615
2012-05-29 03:44:21 51°13.637 2°56.018 22.0356 0.083935 0.342971 -2.458615
2012-05-29 03:44:26 51°13.637 2°56.018 22.0365 0.083935 0.342975 -2.458615
2012-05-29 03:44:31 51°13.637 2°56.018 22.0366 0.083935 0.342975 -2.458615
2012-05-29 03:44:36 51°13.637 2°56.018 22.0351 0.083935 0.342983 -2.458615
2012-05-29 03:44:41 51°13.637 2°56.018 22.0354 0.083935 0.342983 -2.458615
2012-05-29 03:44:46 51°13.637 2°56.018 22.0356 0.084038 0.343418 -2.458615
2012-05-29 03:44:52 51°13.637 2°56.019 22.0361 0.084038 0.343418 -2.458615
2012-05-29 03:44:57 51°13.637 2°56.019 22.0368 0.083935 0.342991 -2.458615
2012-05-29 03:45:02 51°13.637 2°56.018 22.036 0.083935 0.342991 -2.458615
2012-05-29 03:45:07 51°13.636 2°56.018 22.037 0.083935 0.342995 -2.458615
2012-05-29 03:45:12 51°13.636 2°56.018 22.0363 0.083833 0.342573 -2.458615